GFSFLT2_con_sbcape_000.txt.gz
CAPE
660 722 905 1094 1070 1168 1318 1541 1378 1218 1193 1122 1114 958 681 450 303 161 123 76 44 10 25 26 49 62 65 128 183 234 1009 880
696 895 835 980 884 624 811 1074 1197 935 773 557 574 577 261 51 0 24 19 0 0 0 0 0 0 0 0 0 0 27 614 564
966 943 947 901 641 626 343 622 920 864 684 412 353 618 563 194 0 0 0 0 0 0 0 0 0 0 0 0 0 84 148 181
1286 1353 1154 912 303 755 709 639 804 1110 1129 1194 874 1005 897 331 86 0 0 0 0 0 0 0 0 0 0 0 0 0 8 25
1386 1598 1508 1144 359 628 419 352 533 822 1417 1540 1202 1172 875 654 501 158 170 0 25 0 0 0 0 0 0 0 0 0 0 0
1677 1602 1722 1673 770 456 488 474 423 587 800 1471 1246 945 789 641 282 83 30 26 87 2 3 2 0 0 0 0 0 0 0 0
2077 2054 1879 1357 1573 794 936 870 442 641 693 613 1079 664 492 255 60 0 0 22 38 52 9 0 0 0 0 0 0 0 0 0
2349 2264 1736 835 785 990 629 372 247 234 144 119 483 652 176 9 0 0 0 0 1 23 1 0 0 0 0 0 0 0 0 0
2146 1874 647 608 352 236 50 8 21 9 10 25 67 101 29 26 0 0 0 0 27 64 6 0 0 0 0 0 0 0 0 0
1572 785 180 153 67 71 32 23 40 39 36 31 34 53 63 55 22 11 17 39 22 45 31 0 0 0 0 0 0 0 0 0
1207 508 0 16 82 87 91 100 64 0 8 0 7 27 44 88 47 41 82 76 55 58 41 3 0 0 0 0 0 0 0 0
838 93 21 94 85 46 4 1 0 0 0 0 0 0 0 11 19 44 88 94 64 37 54 38 6 0 0 0 0 0 0 0
329 75 0 0 0 0 0 0 0 0 0 0 0 0 0 0 4 25 50 71 87 123 106 101 64 28 4 0 0 0 0 0
0 0 0 0 0 0 0 0 0 0 0 0 0 0 0 0 0 0 0 0 16 41 90 105 129 93 37 10 9 18 21 0
0 0 0 0 0 0 0 0 0 0 0 0 0 0 0 0 0 0 0 0 0 0 9 25 56 112 196 88 52 57 101 70
0 0 0 0 0 0 0 0 0 0 0 0 0 0 0 0 0 0 0 0 0 0 0 1 15 18 101 152 174 128 115 95
0 0 0 0 0 0 0 0 0 0 0 0 0 0 0 0 0 0 0 0 0 0 0 0 3 27 45 73 65 89 61 45
0 0 0 0 0 0 0 0 0 0 0 0 0 0 0 0 0 0 0 0 0 0 1 4 8 13 10 12 13 0 1 15
0 0 0 0 0 0 0 0 0 0 0 0 0 0 0 0 0 0 0 0 1 5 13 19 10 11 3 5 4 5 3 5
0 0 0 0 0 0 0 0 0 0 0 0 0 0 0 0 0 2 10 20 45 53 17 5 20 22 25 8 9 11 6 7

GFSFLT2_con_sbcape_003.txt.gz
CAPE
428 504 794 1187 1132 1234 1401 1365 1187 1097 910 905 896 700 467 259 188 105 52 12 4 0 0 0 1 17 72 128 205 417 574 516
640 622 534 773 853 790 1019 1138 1057 851 659 527 570 509 287 40 55 24 0 0 0 0 0 0 0 0 0 0 0 152 545 214
753 773 594 503 245 409 383 625 857 746 682 499 487 797 540 329 30 3 0 0 0 0 0 0 0 0 0 0 0 62 5 70
1256 1166 897 527 12 246 162 137 651 700 732 809 658 645 550 253 167 109 23 0 0 0 0 0 0 0 0 0 0 0 0 2
1227 1716 1172 511 117 239 208 160 204 439 760 911 706 699 640 464 388 437 535 129 96 1 8 9 0 0 0 0 0 0 0 0
1323 1768 1208 765 406 291 282 219 240 221 476 600 606 438 414 383 151 48 13 20 30 36 27 4 0 0 0 0 0 0 0 0
1059 1684 787 370 578 523 585 559 402 359 296 246 298 285 272 80 16 0 0 1 10 8 1 0 0 0 0 0 0 0 0 0
1144 1603 835 198 232 563 624 345 154 113 43 39 96 156 132 57 9 0 0 0 0 0 13 0 0 0 0 0 0 0 0 0
1390 1541 616 110 233 268 75 3 1 3 0 17 23 53 66 67 47 33 15 41 34 45 13 12 1 0 0 0 0 0 0 0
1108 1263 282 50 100 53 24 30 23 40 29 19 33 62 68 110 72 79 118 144 80 103 33 32 29 17 18 0 0 0 0 0
846 1161 37 14 91 88 77 50 50 10 8 15 16 13 12 71 82 179 402 226 301 300 227 269 188 123 47 42 8 0 1 0
680 812 8 41 98 90 19 2 3 0 0 2 7 20 30 61 100 267 276 262 338 381 576 330 384 313 94 105 159 84 9 8
422 204 113 54 36 0 0 0 0 0 4 0 11 6 0 0 1 67 129 149 320 368 377 385 373 387 412 324 233 142 144 51
249 54 0 0 0 0 0 0 0 3 7 0 0 0 0 0 0 0 19 13 181 272 373 331 308 377 391 345 184 152 205 170
2 0 0 0 0 0 0 0 0 0 0 0 0 0 0 0 0 0 0 36 36 210 185 231 167 195 399 313 150 122 235 226
0 0 0 0 0 0 0 0 0 0 0 0 0 0 0 0 0 0 0 2 46 54 17 132 118 77 151 93 246 193 176 179
0 0 0 0 0 0 0 0 9 15 8 0 0 0 0 0 0 0 0 0 7 28 52 15 18 46 24 52 49 42 105 10
0 0 0 0 0 0 0 0 0 0 0 0 0 0 0 0 0 0 11 23 15 30 41 48 20 26 25 13 14 7 6 7
0 0 0 0 0 0 0 0 0 0 0 0 0 0 0 1 4 12 7 19 44 77 82 10 0 0 1 16 20 5 6 11
0 0 0 0 0 0 0 0 0 0 0 0 0 0 5 6 13 26 39 44 80 77 49 67 10 16 0 3 13 11 16 14

GFSFLT2_con_sbcape_006.txt.gz
CAPE
285 490 702 889 896 1011 1029 1050 1005 844 798 766 637 485 333 172 88 29 0 0 0 0 0 0 0 0 2 36 48 131 74 144
434 472 434 402 510 743 935 945 822 696 555 507 554 408 292 153 113 2 0 0 0 0 0 0 0 0 0 0 0 0 0 61
557 482 618 884 383 445 713 850 776 639 606 427 238 489 305 94 28 16 0 0 0 0 0 0 0 0 0 0 0 0 0 0
1119 831 750 244 47 300 780 473 639 734 751 778 774 672 561 191 221 98 81 20 1 0 0 0 0 0 0 0 0 0 0 0
1309 1395 1039 624 390 399 401 398 427 1020 1147 729 814 580 706 623 559 158 115 42 127 0 0 0 0 0 0 0 0 0 0 0
1394 1251 1127 743 754 403 548 506 313 482 495 695 698 540 563 243 122 0 0 1 0 5 0 0 0 0 0 0 0 0 0 0
1037 1108 1064 1310 636 1191 1048 731 656 468 576 489 377 322 377 236 80 18 5 0 0 0 0 0 0 0 0 0 0 0 0 0
1399 1253 984 676 785 790 1104 666 588 657 183 37 125 174 213 159 58 56 23 15 13 1 0 0 0 0 0 0 0 0 0 0
1099 1202 351 475 587 638 573 28 3 65 63 53 52 84 106 158 102 89 95 113 79 47 61 19 26 2 0 0 0 0 0 0
425 1030 640 309 517 48 74 116 103 73 134 123 52 62 92 141 130 147 162 239 125 123 94 58 30 17 4 0 0 0 0 0
896 475 318 134 249 91 79 87 80 53 10 66 24 14 115 95 81 140 187 157 130 166 117 113 119 106 92 24 3 6 0 0
872 86 0 21 157 103 14 15 26 52 40 6 0 23 8 29 14 72 209 147 80 120 199 95 89 81 82 59 32 11 4 0
70 225 150 73 95 6 0 0 0 6 3 0 0 2 0 0 0 0 0 0 2 13 2 0 2 48 44 37 16 12 100 25
117 55 2 0 0 0 0 0 0 0 6 0 0 0 0 0 0 1 0 0 0 0 17 0 0 0 18 12 0 0 0 0
0 0 0 0 0 0 0 0 0 0 0 0 0 0 0 0 0 0 0 0 0 0 0 0 0 0 0 0 3 0 0 0
0 0 0 0 0 0 0 0 0 0 0 0 0 0 0 0 0 0 0 0 0 0 0 0 0 0 0 0 0 0 4 0
0 0 0 0 0 0 0 0 0 0 0 0 0 0 0 0 0 0 0 0 0 4 4 11 1 0 0 0 0 0 0 0
0 0 0 0 0 0 0 0 0 0 0 0 0 0 0 0 0 0 1 8 13 27 8 0 0 0 0 0 0 0 4 1
0 0 0 0 4 0 0 1 0 0 0 0 0 0 0 0 0 1 9 27 32 22 24 11 6 0 0 0 0 0 0 1
10 0 0 0 0 0 1 0 0 0 0 0 0 0 0 0 2 1 2 0 0 0 3 24 16 15 12 8 1 0 0 2

GFSFLT2_con_sbcape_009.txt.gz
CAPE
412 508 572 517 554 558 595 696 710 734 718 756 560 396 319 212 78 0 0 0 0 0 0 0 0 0 0 0 0 0 0 0
86 94 130 128 341 429 461 488 419 322 397 477 337 268 190 248 88 36 0 0 0 0 0 0 0 0 0 0 0 0 0 0
17 7 10 27 68 364 454 522 428 282 314 292 166 90 77 70 42 53 8 0 0 0 0 0 0 0 0 0 0 0 0 0
27 1 213 0 20 100 98 202 283 220 254 214 89 115 134 24 6 44 20 13 16 12 1 0 0 0 0 0 0 0 0 0
190 0 0 0 60 23 126 68 143 212 268 59 133 28 154 26 23 44 3 28 2 8 0 0 0 0 0 0 0 0 0 0
269 150 21 9 0 0 0 0 0 354 169 158 49 22 0 0 0 0 0 9 17 0 0 0 0 0 0 0 0 0 0 0
351 138 109 42 111 17 22 54 2 5 37 0 0 8 0 0 0 0 0 0 0 0 0 0 0 0 0 0 0 0 0 0
185 215 318 162 149 215 105 50 3 32 0 0 0 0 0 0 0 0 0 0 0 0 0 0 0 0 0 0 0 0 0 0
175 509 565 119 139 114 156 0 0 0 0 0 0 0 0 0 0 0 0 0 4 0 0 0 0 0 0 0 0 0 0 0
26 146 445 99 73 14 0 0 0 0 0 0 0 0 0 0 0 0 0 2 0 0 0 8 2 0 0 0 0 0 0 0
0 0 414 38 0 0 0 0 0 0 0 0 0 0 0 0 0 0 0 0 0 0 0 0 0 0 0 0 0 0 0 0
0 39 4 1 1 0 0 0 0 0 0 0 0 0 0 0 0 0 0 0 0 0 0 0 0 0 0 0 0 0 0 0
0 0 0 0 0 0 0 0 0 0 0 0 0 0 0 0 0 0 0 0 0 0 0 0 0 0 0 0 0 0 0 0
0 0 0 0 0 0 0 0 0 0 0 0 0 0 0 0 0 0 0 0 0 0 0 0 0 0 0 0 0 0 0 0
0 0 0 0 0 0 0 0 0 0 0 0 0 0 0 0 0 0 0 0 0 0 0 0 0 0 0 0 0 0 0 0
0 0 0 0 0 0 0 0 0 0 0 0 0 0 0 0 0 0 0 0 0 0 0 0 0 0 0 0 0 0 0 0
0 0 0 0 0 0 0 0 0 0 0 0 0 0 0 0 0 0 0 0 0 0 0 0 0 0 0 0 0 0 0 0
0 0 0 0 0 0 0 0 0 0 0 0 0 0 0 0 0 0 0 0 0 0 0 0 0 0 8 1 1 0 0 0
0 0 0 0 0 0 0 0 0 0 0 0 0 0 0 0 0 0 0 0 0 0 0 0 0 0 0 0 0 0 0 0
0 0 0 0 0 0 0 0 0 0 0 0 0 0 0 0 0 0 0 0 0 0 0 0 0 0 0 0 1 0 0 0

GFSFLT2_con_sbcape_012.txt.gz
CAPE
495 595 666 561 501 492 605 786 750 788 808 667 443 284 253 100 32 0 0 0 0 0 0 0 0 0 0 0 0 0 0 0
155 216 184 207 284 354 383 380 353 497 523 360 229 122 197 217 103 53 0 0 0 0 0 0 0 0 0 0 0 0 0 0
0 11 5 51 106 256 379 355 240 184 284 249 148 79 13 33 29 2 13 0 0 0 2 0 0 0 0 0 0 0 0 0
0 0 0 0 51 185 80 134 126 94 116 92 60 55 15 2 25 92 100 5 24 43 53 43 5 0 0 0 0 0 0 0
0 0 0 0 6 0 0 14 27 57 152 151 55 45 6 109 0 1 0 0 0 0 0 0 0 0 0 0 0 0 0 0
0 54 5 0 0 0 0 0 53 150 126 18 0 0 0 0 0 0 0 0 0 0 0 0 0 0 0 0 0 0 0 0
0 0 0 0 3 1 0 0 0 46 0 0 0 0 0 0 0 0 0 0 0 0 0 0 0 0 0 0 0 0 0 0
129 123 62 2 13 0 1 0 0 0 0 0 0 0 0 0 0 0 0 0 0 0 0 0 0 0 0 0 0 0 0 0
253 227 164 11 96 9 0 0 0 0 0 0 0 0 0 0 0 0 0 0 0 0 0 0 0 0 0 0 0 0 0 0
19 78 190 27 11 5 0 0 0 0 0 0 0 0 0 0 0 0 0 0 0 0 0 0 0 0 0 0 0 0 0 0
0 10 70 20 0 0 0 0 0 0 0 0 0 0 0 0 0 0 0 0 0 0 0 0 0 0 0 0 0 0 0 0
0 17 62 0 0 0 0 0 0 0 0 0 0 0 0 0 0 0 0 0 0 0 0 0 0 0 0 0 0 0 0 0
0 0 0 0 0 0 0 0 0 0 0 0 0 0 0 0 0 0 0 0 0 0 0 0 0 0 0 0 0 0 0 0
0 0 0 0 0 0 0 0 0 0 0 0 0 0 0 0 0 0 0 0 0 0 0 0 0 0 0 0 0 0 0 0
0 0 0 0 0 0 0 0 0 0 0 0 0 0 0 0 0 0 0 0 0 0 0 0 0 0 0 0 1 0 0 0
0 0 0 0 0 0 0 0 0 0 0 0 0 0 0 0 0 0 0 0 0 0 0 0 0 0 0 0 0 0 1 0
0 0 0 0 0 0 0 0 0 0 0 0 0 0 0 0 0 0 0 0 0 0 0 0 0 0 0 0 0 0 0 0
0 0 0 0 0 0 0 0 0 0 0 0 0 0 0 0 0 0 0 0 0 0 0 0 0 0 0 0 0 1 0 0
0 0 0 0 0 0 0 0 0 0 0 0 0 0 0 0 0 0 0 0 0 0 0 0 0 0 1 12 10 7 0 10
0 0 0 0 0 0 0 0 0 0 0 0 0 0 0 0 0 0 0 0 0 0 0 0 0 0 0 0 13 12 26 28

GFSFLT2_con_sbcape_015.txt.gz
CAPE
649 794 807 775 664 623 575 624 705 749 731 603 433 292 200 111 56 0 0 0 0 0 0 0 0 0 0 0 0 0 0 0
291 295 262 207 264 353 414 439 447 558 555 338 103 57 89 124 47 31 0 0 0 0 0 0 0 0 0 0 0 0 0 0
18 61 27 8 11 127 318 350 312 351 300 158 61 0 0 25 49 10 56 5 6 24 64 47 20 0 0 0 0 0 0 0
0 0 0 0 56 73 22 77 35 22 36 35 29 5 0 0 1 90 143 173 130 128 157 119 80 0 0 0 0 0 0 0
0 0 0 0 2 4 0 7 0 1 32 35 22 40 3 3 0 0 0 0 0 0 0 0 0 0 0 0 0 0 0 0
0 0 0 0 0 0 0 1 1 17 60 34 0 0 0 0 0 0 0 0 0 0 0 0 0 0 0 0 0 0 0 0
0 1 0 0 0 0 0 2 53 78 42 5 0 0 0 0 0 0 0 0 0 0 0 0 0 0 0 0 0 0 0 0
0 0 0 0 0 0 0 0 6 28 2 0 0 0 0 0 0 0 0 0 0 0 0 0 0 0 0 0 0 0 0 0
0 0 0 0 0 0 0 0 0 0 0 0 0 0 0 0 0 0 0 0 0 0 0 0 0 0 0 0 0 0 0 0
3 90 0 0 0 0 0 0 0 0 0 0 0 0 0 0 0 0 0 0 0 0 0 0 0 0 0 0 0 0 0 0
0 0 0 0 0 0 0 0 0 0 0 0 0 0 0 0 0 0 0 0 0 0 0 0 0 0 0 0 0 0 0 0
0 0 0 0 0 0 0 0 0 0 0 0 0 0 0 0 0 0 0 0 0 0 0 0 0 0 0 0 0 0 0 0
0 0 0 0 0 0 0 0 0 0 0 0 0 0 0 0 0 0 0 0 0 0 0 0 0 0 0 0 0 0 0 0
0 0 0 0 0 0 0 0 0 0 0 0 0 0 0 0 0 0 0 0 0 0 0 0 0 0 0 0 0 0 0 0
0 0 0 0 0 0 0 0 0 0 0 0 0 0 0 0 0 0 0 0 0 0 0 0 0 0 0 0 6 1 0 0
0 0 0 0 0 0 0 0 0 0 0 0 0 0 0 0 0 0 0 0 0 0 0 0 0 0 0 0 0 0 19 7
0 0 0 0 0 0 0 0 0 0 0 0 0 0 0 0 0 0 0 0 0 0 0 0 0 0 0 4 3 0 0 1
0 0 0 0 0 0 0 0 0 0 0 0 0 0 0 0 0 0 0 0 0 0 0 0 0 0 0 1 4 20 32 7
0 0 0 0 0 0 0 0 0 0 0 0 0 0 0 0 0 0 0 0 0 0 0 0 0 0 0 0 0 5 10 28
0 0 0 0 0 0 0 0 0 0 0 0 0 0 0 0 0 0 0 0 0 0 0 0 0 0 0 0 0 0 17 6

GFSFLT2_con_sbcape_018.txt.gz
CAPE
714 733 799 841 823 756 656 686 722 718 652 566 410 231 132 80 29 0 0 0 6 18 8 15 4 8 15 0 0 0 0 0
422 552 525 415 454 508 425 459 516 562 569 415 150 85 44 34 4 22 4 13 52 54 121 97 60 40 21 1 0 0 0 0
199 210 70 16 18 220 395 425 402 430 421 205 16 0 0 0 10 9 78 140 100 150 210 145 93 19 6 38 0 0 0 0
3 0 0 0 25 49 8 71 83 96 81 42 0 0 0 0 0 25 100 84 59 43 16 5 0 0 0 0 0 0 0 0
0 0 0 0 0 0 0 0 0 8 14 3 5 5 0 1 0 0 0 0 0 0 0 0 0 0 0 0 0 0 0 0
0 0 0 0 0 0 0 0 0 25 51 70 8 0 0 0 0 0 0 0 0 0 0 0 0 0 0 0 0 0 0 0
0 0 0 0 0 0 0 0 31 28 34 0 0 0 0 0 0 0 0 0 0 0 0 0 0 0 0 0 0 0 0 0
0 0 0 0 0 0 0 0 0 17 0 0 0 0 0 0 0 0 0 0 0 0 0 0 0 0 0 0 0 0 0 0
0 0 0 0 0 0 0 0 0 0 0 0 0 0 0 0 0 0 0 0 0 0 0 0 0 0 0 0 0 0 0 0
9 0 0 0 0 0 0 0 0 0 0 0 0 0 0 0 0 0 0 0 0 0 0 0 0 0 0 0 0 0 0 0
0 0 0 0 0 1 0 0 0 0 0 0 0 0 0 0 0 0 0 0 0 0 0 0 0 0 0 0 0 0 0 0
0 0 0 0 0 0 0 0 0 0 0 0 0 0 0 0 0 0 0 0 0 0 0 0 0 0 0 0 0 0 0 0
0 0 0 0 0 0 0 0 0 0 0 0 0 0 0 0 0 0 0 0 0 0 0 0 0 0 0 0 0 0 0 0
0 0 0 0 0 0 0 0 0 0 0 0 0 0 0 0 0 0 0 0 0 0 0 0 0 0 0 0 0 0 0 0
0 0 0 0 0 0 0 0 0 0 0 0 0 0 0 0 0 0 0 0 0 0 0 0 0 0 0 0 3 0 0 0
0 0 0 0 0 0 0 0 0 0 0 0 0 0 0 0 0 0 0 0 0 0 0 0 0 0 0 0 0 1 12 5
0 0 0 0 0 0 0 0 0 0 0 0 0 0 0 0 0 0 0 0 0 0 0 0 0 0 0 0 0 1 0 47
0 0 0 0 0 0 0 0 0 0 0 0 0 0 0 0 0 0 0 0 0 0 0 0 0 0 0 0 0 6 1 18
0 0 0 0 0 0 0 0 0 0 0 0 0 0 0 0 0 0 0 0 0 0 0 0 0 0 0 0 0 0 0 5
0 0 0 0 0 0 0 0 0 0 0 0 0 0 0 0 0 0 0 0 0 0 0 0 0 0 0 0 0 0 0 0

GFSFLT2_con_sbcape_021.txt.gz
CAPE
1131 1177 1086 985 990 844 652 740 716 669 623 539 372 190 147 120 95 12 0 115 76 39 15 40 39 30 19 0 0 0 0 0
758 1008 1000 1084 1034 685 587 560 541 520 516 330 126 63 78 77 0 85 103 76 78 114 165 113 44 14 0 0 0 0 0 0
575 692 869 785 745 638 451 497 461 435 412 119 32 80 118 125 28 75 137 161 139 113 72 48 0 0 0 0 0 0 0 0
518 672 563 351 284 448 365 294 285 345 345 361 155 169 142 88 64 21 29 0 0 0 0 0 0 0 0 0 0 0 0 0
526 428 240 150 137 204 96 153 194 242 319 326 318 293 344 356 253 12 0 0 0 0 0 0 0 0 0 0 0 0 0 0
243 110 56 2 2 28 32 110 203 363 483 536 540 351 185 163 0 0 0 0 0 0 0 0 0 0 0 0 0 0 0 0
63 0 0 0 1 29 45 116 292 410 444 247 126 5 4 0 0 0 0 0 0 0 0 0 0 0 0 0 0 0 0 0
35 0 0 1 14 4 13 44 61 115 91 29 7 0 0 0 0 0 0 0 0 0 0 0 0 0 0 0 0 0 0 0
47 6 2 0 0 0 0 0 0 0 0 0 0 0 0 0 0 0 0 0 0 0 0 0 0 0 0 0 0 0 0 0
30 0 0 0 1 0 2 0 0 0 0 0 0 0 0 0 0 0 0 0 0 0 0 0 0 0 0 0 0 0 0 0
13 25 32 5 0 0 0 0 0 0 0 0 0 0 0 0 0 0 0 0 0 0 0 0 0 0 0 0 0 0 0 0
26 13 1 1 0 0 0 0 0 0 0 0 0 0 0 0 0 0 0 0 0 0 0 0 0 0 0 0 0 0 0 0
29 3 1 0 0 0 0 0 0 0 0 0 0 0 0 0 0 0 0 0 0 0 0 0 0 0 0 0 0 0 0 0
16 2 0 0 0 0 0 0 0 0 0 0 0 0 0 0 0 0 0 0 0 0 0 0 0 0 0 0 0 0 1 0
0 0 0 0 0 0 0 0 0 0 0 0 0 0 0 0 0 0 0 0 0 0 0 0 0 0 0 0 0 0 3 0
0 0 0 0 0 0 0 0 0 0 0 0 0 0 0 0 0 0 0 0 0 0 0 0 0 0 0 1 2 9 6 3
0 0 0 0 0 0 0 0 0 0 0 0 0 0 0 0 0 0 0 0 0 0 0 0 0 0 0 0 0 6 13 43
0 0 0 0 0 0 0 0 0 0 0 0 0 0 0 0 0 0 0 0 0 0 0 0 0 0 0 0 2 9 12 28
0 0 0 0 0 0 0 0 0 0 0 0 0 0 0 0 0 0 0 0 0 0 0 0 0 0 0 5 17 26 40 46
0 0 0 0 0 0 0 0 0 0 0 0 0 0 0 0 0 0 0 0 0 0 0 8 17 28 24 16 10 22 72 68

GFSFLT2_con_sbcape_024.txt.gz
CAPE
1035 828 742 953 903 707 712 748 764 693 629 494 296 244 241 112 24 0 5 36 50 72 76 73 29 13 0 0 0 0 0 0
1098 1118 1086 1042 1068 603 626 587 550 564 516 265 140 132 122 31 123 122 114 69 130 157 94 34 0 0 0 0 0 0 0 0
1037 1047 1022 988 814 745 481 542 482 452 328 150 83 300 322 189 49 105 106 22 31 34 10 0 0 0 0 0 0 0 0 0
793 1196 943 934 462 409 193 104 245 525 542 541 518 663 576 238 140 19 0 0 0 0 0 0 0 0 0 0 0 0 0 0
864 1026 842 396 246 90 27 145 540 738 857 901 954 901 987 751 205 21 32 0 2 0 0 0 0 0 0 0 0 0 0 0
683 590 429 262 35 1 171 528 736 801 1042 1161 1132 1085 974 707 48 42 65 14 13 0 0 0 0 0 0 0 0 0 0 0
336 257 210 175 186 384 637 736 815 918 1064 950 851 589 490 181 121 16 3 1 0 0 0 0 0 0 0 0 0 0 0 0
309 166 128 247 429 608 671 467 192 216 373 176 126 188 318 186 24 0 0 0 0 0 0 0 0 0 0 0 0 0 0 0
485 332 259 420 488 358 118 42 44 38 79 39 10 78 58 6 0 0 0 0 0 0 0 0 0 0 0 0 0 0 0 0
635 344 233 508 406 100 39 19 22 4 7 0 0 0 0 2 0 0 0 0 0 0 0 0 0 0 0 0 0 0 0 0
700 635 360 15 7 61 41 0 0 0 0 0 0 0 0 0 0 0 0 0 0 0 0 0 0 0 0 0 0 0 0 0
672 495 85 2 8 38 0 0 0 0 0 0 0 0 0 0 0 0 0 0 0 0 0 0 0 0 0 0 0 0 0 1
646 298 536 228 164 25 0 0 0 0 0 0 0 0 0 0 0 0 0 0 0 0 0 0 0 1 0 0 0 0 13 20
634 727 757 439 78 4 3 14 4 0 0 0 0 0 0 0 0 0 0 0 0 0 0 0 0 5 9 0 0 0 0 19
866 725 456 0 0 0 5 3 0 0 0 0 0 0 0 0 0 0 0 0 0 1 2 0 1 0 1 1 4 1 1 1
75 2 0 0 0 0 0 0 2 0 0 0 0 0 0 0 0 0 0 0 2 6 0 0 0 0 0 2 3 7 13 19
0 0 0 0 0 0 0 0 0 0 0 0 0 0 0 0 0 0 7 20 11 0 0 2 0 2 4 4 13 15 20 36
0 0 0 0 0 0 0 0 0 0 0 0 0 0 3 12 23 29 26 14 2 2 15 7 25 9 11 22 33 35 38 36
0 0 0 0 0 0 0 0 0 0 0 0 0 0 0 0 0 1 14 33 6 56 45 58 53 40 32 36 37 39 34 33
0 0 0 0 0 0 0 0 0 0 0 0 0 0 0 0 0 1 25 47 50 67 83 63 61 45 41 48 48 39 30 52

GFSFLT2_con_sbcape_027.txt.gz
CAPE
687 672 624 635 622 596 594 648 619 600 524 349 232 284 295 105 36 42 62 87 124 109 66 0 0 0 0 9 0 0 0 0
859 830 865 837 684 535 520 499 506 526 303 201 164 151 125 83 257 147 162 140 111 107 52 0 0 0 0 0 0 30 0 5
697 672 821 891 657 474 457 553 497 324 111 96 38 233 247 195 85 116 57 0 26 27 0 0 6 0 0 0 1 0 0 0
687 948 963 799 317 185 32 24 136 347 318 355 549 510 628 216 76 63 0 0 1 0 0 0 12 0 2 0 0 0 0 0
723 811 703 407 255 63 1 152 450 656 747 834 854 683 697 661 365 152 177 24 127 31 29 11 0 0 0 0 0 0 0 0
714 549 444 196 6 2 54 450 629 845 951 997 859 729 972 656 258 88 156 70 64 37 33 0 0 0 0 0 0 0 0 0
333 285 174 39 37 176 611 691 1059 992 1015 971 908 737 1056 419 480 186 143 61 51 42 40 9 0 0 0 0 0 0 0 0
220 64 50 157 500 594 699 437 243 248 306 394 526 384 748 299 194 38 173 61 57 10 0 0 0 0 0 0 0 0 0 1
305 236 459 637 593 253 192 157 117 111 161 216 180 88 103 22 4 36 57 0 0 0 0 0 0 0 0 0 0 0 0 3
509 364 581 784 248 3 17 56 120 75 87 9 0 0 0 1 0 0 0 0 0 0 0 0 0 0 0 2 0 0 0 0
669 532 661 66 0 20 46 74 68 0 0 0 0 0 0 0 0 0 0 0 0 0 2 0 3 1 0 0 0 0 0 0
849 713 338 93 135 22 22 0 0 0 0 0 0 0 0 0 0 0 0 0 0 1 0 0 0 0 0 0 1 0 0 0
998 671 405 472 325 161 39 9 0 0 0 0 0 0 0 0 0 0 0 0 0 0 0 0 0 0 0 0 0 0 3 0
907 665 623 659 463 397 155 90 29 0 0 0 0 0 0 0 0 0 0 0 0 0 0 0 0 0 0 0 0 0 0 1
840 810 967 696 122 48 84 71 0 0 0 0 0 0 0 0 0 0 0 0 0 0 1 6 1 3 5 4 2 2 3 1
870 674 322 22 2 25 34 38 46 31 8 0 0 0 0 0 0 0 0 1 3 6 4 7 15 13 15 14 17 15 12 9
455 67 8 1 0 2 19 2 0 0 0 0 0 0 0 0 0 5 7 5 9 12 16 24 34 32 23 24 16 18 24 35
2 1 0 0 0 0 0 0 0 0 0 0 0 0 0 0 0 0 0 1 18 21 36 54 56 45 62 37 31 35 32 36
0 0 0 0 0 0 0 0 0 0 0 0 0 0 0 0 0 0 0 0 3 30 44 87 60 64 80 56 34 44 60 53
0 0 0 0 0 0 0 0 0 0 0 0 0 0 0 0 0 0 0 2 15 46 64 46 78 100 72 68 62 60 60 62

GFSFLT2_con_sbcape_030.txt.gz
CAPE
165 359 581 548 533 532 527 507 450 353 313 273 275 265 236 277 320 279 217 186 182 76 47 0 0 0 0 0 0 31 0 0
254 334 517 398 352 389 395 412 339 218 187 162 126 118 176 248 248 244 114 87 73 45 2 0 0 0 0 0 0 0 0 0
129 330 558 353 309 383 441 459 260 128 92 105 0 13 14 183 85 82 2 0 5 0 0 0 46 8 10 72 8 0 0 0
343 558 648 361 67 136 122 90 7 10 16 0 138 566 176 154 77 57 0 0 0 6 0 0 27 0 0 0 0 0 0 0
519 392 445 120 115 60 35 91 400 461 627 768 658 866 662 165 232 13 0 2 71 0 47 14 1 0 0 0 0 0 0 0
609 497 506 171 121 12 23 498 523 921 814 826 812 687 669 527 119 166 85 28 61 66 62 41 6 0 0 0 0 0 0 0
346 357 292 182 328 534 617 796 877 978 809 590 698 511 509 459 133 3 0 4 17 16 0 0 0 0 0 0 0 0 0 0
262 194 240 322 715 685 509 418 321 277 237 413 563 359 277 97 2 0 1 0 0 0 0 0 0 0 0 0 0 0 0 0
180 111 295 567 500 306 186 48 57 70 143 206 141 25 9 5 0 0 0 0 0 0 0 0 0 0 0 0 0 0 0 0
192 245 549 367 113 33 3 3 38 19 4 0 0 0 0 0 0 0 0 0 0 0 0 0 0 0 0 0 0 0 0 0
566 691 392 123 68 69 63 89 0 0 0 0 0 0 0 0 0 0 0 0 0 0 0 0 0 0 0 0 0 0 0 0
541 746 387 201 105 83 61 2 0 0 0 0 0 0 0 0 0 0 0 0 0 0 0 0 0 0 0 0 0 0 0 0
598 536 314 203 143 131 18 0 0 0 0 0 0 0 0 0 0 0 0 0 0 0 0 0 0 0 0 0 0 0 0 0
474 380 250 366 416 186 69 4 0 0 0 0 0 0 0 0 0 0 0 0 0 0 0 0 0 0 0 0 0 0 0 0
548 448 449 508 484 209 58 9 0 0 0 0 0 0 0 0 0 0 0 0 0 0 0 0 0 0 0 0 0 0 0 0
760 722 712 637 349 29 10 0 0 1 1 0 0 0 0 0 0 0 0 0 0 0 0 0 0 0 0 0 0 0 0 0
1027 924 657 53 8 17 8 2 0 0 0 0 0 0 0 0 0 0 0 0 0 0 1 0 1 0 0 0 0 0 0 0
727 558 4 0 0 2 2 0 0 0 0 0 0 0 0 0 0 0 0 0 0 0 2 18 1 0 0 1 1 0 0 0
75 0 0 0 0 0 0 0 0 0 0 0 0 0 0 0 0 0 0 0 0 0 6 1 3 6 0 0 8 2 0 2
0 0 0 0 0 0 0 0 0 0 0 0 0 0 0 0 0 0 0 0 0 0 21 28 18 5 11 13 11 0 1 1

GFSFLT2_con_sbcape_033.txt.gz
CAPE
156 237 400 372 379 296 233 175 193 221 271 269 245 208 244 286 312 317 270 226 117 4 0 0 0 0 17 0 0 2 0 0
149 295 261 239 234 226 177 131 144 133 126 101 81 109 182 233 200 134 54 20 11 0 0 0 0 0 0 10 0 0 0 0
132 224 231 146 92 163 136 103 71 64 64 34 10 0 0 40 5 22 0 0 0 0 0 0 0 0 0 6 0 0 0 0
0 148 171 56 42 31 20 13 1 0 0 0 0 0 0 0 0 12 0 0 0 0 0 1 0 0 0 0 0 0 0 0
5 89 160 0 4 0 0 0 0 0 0 0 21 78 0 0 0 1 0 0 0 0 0 0 0 0 0 0 0 0 0 0
73 284 65 3 8 0 0 20 162 256 325 287 140 64 0 0 0 0 0 0 0 0 0 0 0 0 0 0 0 0 0 0
198 143 14 11 1 95 189 275 264 274 42 96 14 2 0 0 0 0 0 0 0 0 0 0 0 0 0 0 0 0 0 0
88 45 4 85 224 229 226 50 0 0 3 101 18 5 0 0 0 0 0 0 0 0 0 0 0 0 0 0 0 0 0 0
0 0 206 192 15 0 0 0 0 0 0 0 0 0 0 0 0 0 0 0 0 0 0 0 0 0 0 0 0 0 0 0
0 192 119 0 0 0 0 0 0 0 0 0 0 0 0 0 0 0 0 0 0 0 0 0 0 0 0 0 0 0 0 0
22 259 8 0 0 0 0 0 0 0 0 0 0 0 0 0 0 0 0 0 0 0 0 0 0 0 0 0 0 0 0 0
265 99 0 0 0 0 0 0 0 0 0 0 0 0 0 0 0 0 0 0 0 0 0 0 0 0 0 0 0 0 0 0
245 75 0 0 0 0 0 0 0 0 0 0 0 0 0 0 0 0 0 0 0 0 0 0 0 0 0 0 0 0 0 0
238 82 7 17 9 7 0 0 0 0 0 0 0 0 0 0 0 0 0 0 0 0 0 0 0 0 0 0 0 0 0 0
223 148 49 64 100 9 0 0 0 0 0 0 0 0 0 0 0 0 0 0 0 0 0 0 0 0 0 0 0 0 0 0
175 127 73 65 128 0 0 0 0 0 0 0 0 0 0 0 0 0 0 0 0 0 0 0 0 0 0 0 0 0 0 0
260 223 167 203 149 0 0 0 0 0 0 0 0 0 0 0 0 0 0 0 0 0 0 0 0 0 0 0 0 0 0 0
291 263 254 141 0 0 0 0 0 0 0 0 0 0 0 0 0 0 0 0 0 0 0 0 0 0 0 0 0 0 0 0
271 120 0 0 0 0 0 0 0 0 0 0 0 0 0 0 0 0 0 0 0 0 0 0 0 0 0 0 0 0 0 0
162 0 0 0 0 0 0 0 0 0 0 0 0 0 0 0 0 0 0 0 0 0 0 0 0 0 0 0 0 0 0 0

GFSFLT2_con_sbcape_036.txt.gz
CAPE
83 56 157 325 315 270 200 225 265 298 268 227 206 207 245 275 298 293 220 107 10 0 0 0 0 0 0 0 0 0 0 0
2 132 94 152 175 190 166 172 182 183 176 147 129 148 189 201 167 167 113 22 0 0 0 0 0 0 0 0 0 0 0 0
0 84 135 121 108 136 152 166 141 111 103 66 20 5 9 16 0 14 0 0 0 0 0 0 0 8 0 0 0 0 0 0
11 38 65 80 70 26 5 8 2 0 0 0 0 0 0 0 0 0 0 0 0 0 0 0 0 0 0 0 0 0 0 0
4 100 57 12 3 0 0 0 0 0 0 0 0 0 0 0 0 0 0 0 0 0 0 0 0 0 0 0 0 0 0 0
9 18 58 0 0 0 0 0 0 8 23 25 3 0 0 0 0 0 0 0 0 0 0 0 0 0 0 0 0 0 0 0
26 33 92 0 0 0 0 7 32 11 1 0 0 0 0 0 0 0 0 0 0 0 0 0 0 0 0 0 0 0 0 0
24 172 31 1 25 29 48 15 2 0 0 0 0 0 0 0 0 0 0 0 0 0 0 0 0 0 0 0 0 0 0 0
114 117 2 90 31 0 0 0 0 0 0 0 0 0 0 0 0 0 0 0 0 0 0 0 0 0 0 0 0 0 0 0
12 69 29 0 0 0 0 0 0 0 0 0 0 0 0 0 0 0 0 0 0 0 0 0 0 0 0 0 0 0 0 0
40 16 0 0 0 0 0 0 0 0 0 0 0 0 0 0 0 0 0 0 0 0 0 0 0 0 0 0 0 0 0 0
106 0 0 0 0 0 0 0 0 0 0 0 0 0 0 0 0 0 0 0 0 0 0 0 0 0 0 0 0 0 0 0
87 0 0 0 0 0 0 0 0 0 0 0 0 0 0 0 0 0 0 0 0 0 0 0 0 0 0 0 0 0 0 0
51 1 0 0 0 0 0 0 0 0 0 0 0 0 0 0 0 0 0 0 0 0 0 0 0 0 0 0 0 0 0 0
118 16 0 0 0 0 0 0 0 0 0 0 0 0 0 0 0 0 0 0 0 0 0 0 0 0 0 0 0 0 0 0
161 17 0 0 0 0 0 0 0 0 0 0 0 0 0 0 0 0 0 0 0 0 0 0 0 0 0 0 0 0 0 0
14 30 0 0 2 0 0 0 0 0 0 0 0 0 0 0 0 0 0 0 0 0 0 0 0 0 0 0 0 0 0 0
63 22 48 20 9 0 0 0 0 0 0 0 0 0 0 0 0 0 0 0 0 0 0 0 0 0 0 0 0 0 0 0
66 108 139 73 0 0 0 0 0 0 0 0 0 0 0 0 0 0 0 0 0 0 0 0 0 0 0 0 0 0 0 0
126 129 37 0 0 0 0 0 0 0 0 0 0 0 0 0 0 0 0 0 0 0 0 0 0 0 0 0 0 0 0 0

GFSFLT2_con_sbcape_039.txt.gz
CAPE
48 80 241 234 240 209 235 334 373 349 312 296 293 267 249 243 211 186 143 74 16 2 1 19 0 0 0 0 0 0 0 0
11 53 48 136 140 185 243 276 319 292 271 242 234 228 246 231 194 166 151 95 6 0 18 41 0 0 0 0 0 0 0 0
0 37 17 75 127 144 207 279 234 201 200 159 69 19 3 0 15 27 41 17 4 14 4 0 0 0 0 0 0 0 0 0
0 5 0 74 95 55 29 61 24 17 6 2 0 0 0 0 6 0 0 0 0 1 0 0 0 0 0 0 0 0 0 0
0 9 89 86 62 9 0 0 0 0 0 0 0 0 0 0 0 0 0 0 0 0 0 0 0 0 0 0 0 0 0 0
0 113 99 43 13 0 0 0 0 0 0 0 0 0 0 0 0 0 0 0 0 0 0 0 0 0 0 0 0 0 0 0
23 70 77 2 0 0 0 0 8 38 22 11 0 0 0 0 0 0 0 0 0 0 0 0 0 0 0 0 0 0 0 0
36 22 58 0 0 0 0 15 18 0 0 0 0 0 0 0 0 0 0 0 0 0 0 0 0 0 0 0 0 0 0 0
14 51 14 0 0 0 0 0 0 0 0 0 0 0 0 0 0 0 0 0 0 0 0 0 0 0 0 0 0 0 0 0
46 149 0 0 0 0 0 0 0 0 0 0 0 0 0 0 0 0 0 0 0 0 0 0 0 0 0 0 0 0 0 0
48 9 0 0 0 0 0 0 0 0 0 0 0 0 0 0 0 0 0 0 0 0 0 0 0 0 0 0 0 0 0 0
26 0 0 0 0 0 0 0 0 0 0 0 0 0 0 0 0 0 0 0 0 0 0 0 0 0 0 0 0 0 0 0
0 0 0 0 0 0 0 0 0 0 0 0 0 0 0 0 0 0 0 0 0 0 0 0 0 0 0 0 0 0 0 0
0 0 0 0 0 0 0 0 0 0 0 0 0 0 0 0 0 0 0 0 0 0 0 0 0 0 0 0 0 0 0 0
8 0 0 0 0 0 0 0 0 0 0 0 0 0 0 0 0 0 0 0 0 0 0 0 0 0 0 0 0 0 0 0
42 0 0 0 0 0 0 0 0 0 0 0 0 0 0 0 0 0 0 0 0 0 0 0 0 0 0 0 0 0 0 0
6 0 0 0 0 0 0 0 0 0 0 0 0 0 0 0 0 0 0 0 0 0 0 0 0 0 0 0 0 0 0 0
1 0 0 0 0 0 0 0 0 0 0 0 0 0 0 0 0 0 0 0 0 0 0 0 0 0 0 0 0 0 0 0
15 9 2 0 0 0 0 0 0 0 0 0 0 0 0 0 0 0 0 0 0 0 0 0 0 0 0 0 0 0 0 0
43 50 50 0 0 0 0 0 0 0 0 0 0 0 0 0 0 0 0 0 0 0 0 0 0 0 0 0 0 0 0 0

GFSFLT2_con_sbcape_042.txt.gz
CAPE
62 15 125 266 285 325 371 424 387 377 370 369 342 298 277 238 201 158 133 142 110 33 0 0 12 7 0 0 0 0 0 0
5 3 25 111 206 352 380 357 336 354 320 254 218 228 231 205 208 200 126 103 148 146 24 0 0 0 0 0 0 0 0 0
12 17 35 108 159 281 302 380 298 271 219 193 42 20 25 0 67 111 96 88 73 26 1 0 0 0 0 0 0 0 0 0
0 13 24 92 91 92 92 135 42 22 26 6 5 0 0 0 1 8 22 23 4 0 0 0 0 0 0 0 0 0 0 0
5 1 19 135 68 7 9 4 0 0 0 0 0 0 0 0 0 0 0 0 0 0 0 0 0 0 0 0 0 0 0 0
0 10 115 67 22 0 0 0 0 0 0 0 0 0 0 0 0 0 0 0 0 0 0 0 0 0 0 0 0 0 0 0
0 18 118 23 12 0 0 0 0 0 0 0 0 0 0 0 0 0 0 0 0 0 0 0 0 0 0 0 0 0 0 0
0 53 55 0 0 0 0 0 0 0 0 0 0 0 0 0 0 0 0 0 0 0 0 0 0 0 0 0 0 0 0 0
2 16 26 0 0 0 0 0 0 0 0 0 0 0 0 0 0 0 0 0 0 0 0 0 0 0 0 0 0 0 0 0
6 37 0 0 0 0 0 0 0 0 0 0 0 0 0 0 0 0 0 0 0 0 0 0 0 0 0 0 0 0 0 0
21 39 0 0 0 0 0 0 0 0 0 0 0 0 0 0 0 0 0 0 0 0 0 0 0 0 0 0 0 0 0 0
17 1 0 0 0 0 0 0 0 0 0 0 0 0 0 0 0 0 0 0 0 0 0 0 0 0 0 0 0 0 0 0
10 0 0 0 0 0 0 0 0 0 0 0 0 0 0 0 0 0 0 0 0 0 0 0 0 0 0 0 0 0 0 0
4 0 0 0 0 0 0 0 0 0 0 0 0 0 0 0 0 0 0 0 0 0 0 0 0 0 0 0 0 0 0 0
0 0 0 0 0 0 0 0 0 0 0 0 0 0 0 0 0 0 0 0 0 0 0 0 0 0 0 0 0 0 0 0
3 0 0 0 0 0 0 0 0 0 0 0 0 0 0 0 0 0 0 0 0 0 0 0 0 0 0 0 0 0 0 0
0 0 0 0 0 0 0 0 0 0 0 0 0 0 0 0 0 0 0 0 0 0 0 0 0 0 0 0 0 0 0 0
0 0 0 0 0 0 0 0 0 0 0 0 0 0 0 0 0 0 0 0 0 0 0 0 0 0 0 0 0 0 0 0
0 0 2 0 0 0 0 0 0 0 0 0 0 0 0 0 0 0 0 0 0 0 0 0 0 0 0 0 0 0 0 0
1 22 23 0 0 0 0 0 0 0 0 0 0 0 0 0 0 0 0 0 0 0 0 0 0 0 0 0 0 0 0 0

GFSFLT2_con_sbcape_045.txt.gz
CAPE
120 80 90 128 362 220 224 319 354 363 336 324 263 197 139 152 202 227 189 83 51 119 149 74 12 0 0 0 0 0 0 0
3 10 36 95 373 267 223 301 343 363 289 183 156 148 184 197 168 194 269 199 87 36 25 42 0 0 0 0 0 0 0 0
0 2 49 99 355 394 269 327 287 243 203 145 36 13 10 0 62 109 151 209 76 9 0 0 0 0 0 0 0 0 0 0
5 17 20 104 221 224 215 234 144 120 81 53 31 62 25 3 11 58 76 22 0 0 0 0 0 0 0 0 0 0 0 0
24 8 3 117 176 171 72 67 76 99 61 39 55 59 55 0 0 0 0 0 0 0 0 0 0 0 0 0 0 0 0 0
0 0 0 58 59 92 40 45 31 38 10 41 85 19 6 0 0 0 0 0 0 0 0 0 0 0 0 0 0 0 0 0
15 76 193 158 85 43 34 28 12 51 21 51 88 11 0 0 0 0 0 0 0 0 0 0 0 0 0 0 0 0 0 0
43 100 195 120 51 6 4 26 35 51 52 64 138 145 16 0 0 0 0 0 0 0 0 0 0 0 0 0 0 0 0 0
6 64 216 116 35 0 0 0 64 192 193 196 149 5 0 0 0 0 0 0 0 0 0 0 0 0 0 0 0 0 0 0
1 43 212 45 5 0 0 72 235 146 57 11 0 0 0 0 0 0 0 0 0 0 0 0 0 0 0 0 0 0 0 0
0 83 273 65 3 1 2 75 128 38 0 0 0 0 0 0 0 0 0 0 0 0 0 0 0 0 0 0 0 0 0 0
34 115 235 154 14 3 7 31 21 0 0 0 0 0 0 0 0 0 0 0 0 0 0 0 0 0 0 0 0 0 0 0
166 212 216 96 13 16 22 32 0 0 0 0 0 0 0 0 0 0 0 0 0 0 0 0 0 0 0 0 0 0 0 0
181 205 193 135 76 27 20 41 3 0 0 0 0 0 0 0 0 0 0 0 0 0 0 0 0 0 0 0 0 0 0 0
216 221 222 207 106 11 0 0 0 0 0 0 0 0 0 0 0 0 0 0 0 0 0 0 0 0 0 0 0 0 0 0
200 226 157 151 60 31 0 30 7 0 0 0 0 0 0 0 0 0 0 0 0 0 0 0 0 0 0 0 0 0 0 0
272 204 148 91 26 34 0 34 15 0 0 0 0 0 0 0 0 0 0 0 0 0 0 0 0 0 0 0 0 0 0 0
225 166 132 79 26 1 0 0 0 0 0 0 0 0 0 0 0 0 0 0 0 0 0 0 0 0 0 0 0 0 0 0
304 248 176 54 5 2 0 0 0 0 0 0 0 0 0 0 0 0 0 0 0 0 0 0 0 0 0 0 0 0 0 0
264 222 295 103 55 54 8 0 0 0 0 0 0 0 0 0 0 0 0 0 0 0 0 0 0 0 0 0 0 0 0 0

GFSFLT2_con_sbcape_048.txt.gz
CAPE
195 201 98 88 115 239 271 271 305 346 380 349 352 292 266 268 207 198 280 256 212 189 91 20 0 0 0 0 0 0 0 0
2 0 0 95 133 282 364 327 329 358 311 238 170 203 241 267 192 198 169 220 246 205 26 0 0 0 0 0 0 0 0 0
11 0 0 8 96 260 422 375 289 208 235 184 48 9 11 23 119 280 216 144 75 21 0 0 0 0 0 0 0 0 0 0
9 20 8 31 109 202 369 303 213 140 108 70 65 66 49 10 61 152 70 20 0 0 0 0 0 0 0 0 0 0 0 0
2 0 1 19 107 263 312 251 261 179 207 92 136 102 44 7 13 0 0 0 0 0 0 0 0 0 0 0 0 0 0 0
11 9 34 57 25 154 212 122 88 119 183 194 188 154 51 28 34 19 0 0 0 0 0 0 0 0 0 0 0 0 0 0
24 45 55 43 60 209 152 198 80 98 184 225 96 63 44 24 53 9 0 0 0 0 0 0 0 0 0 0 0 0 0 0
6 47 36 53 137 261 232 169 105 202 102 182 289 66 82 39 65 26 16 0 0 0 0 0 0 0 0 0 0 0 0 0
41 33 41 14 95 212 132 98 57 62 186 449 483 355 193 68 46 5 0 0 0 0 0 0 0 0 0 0 0 0 0 0
121 99 119 189 152 20 68 49 121 214 429 620 670 566 394 179 42 11 0 0 0 0 0 0 0 0 0 0 0 0 0 0
139 222 281 383 311 24 45 95 254 478 697 638 602 429 152 89 32 0 0 0 0 0 0 0 0 0 0 0 0 0 0 0
195 250 441 589 404 176 6 131 272 612 694 579 417 182 28 25 8 0 0 0 0 0 0 0 0 0 0 0 0 0 0 0
206 374 520 664 445 100 2 76 284 632 662 532 325 70 2 7 0 0 0 0 0 0 0 0 0 0 0 0 0 0 0 0
248 258 369 764 571 173 41 23 165 311 501 489 305 105 0 0 0 0 0 0 0 0 0 0 0 0 0 0 0 0 0 0
306 260 395 682 645 382 113 114 300 418 350 118 0 0 0 0 0 0 0 0 0 0 0 0 0 0 0 0 0 0 0 0
411 430 522 738 839 600 230 70 211 406 534 309 18 0 0 0 0 0 0 0 0 0 0 0 0 0 0 0 0 0 0 0
504 475 555 723 926 929 555 187 142 517 622 308 32 1 0 0 0 0 0 0 0 0 0 0 0 0 0 0 0 0 0 0
1040 716 688 744 836 883 951 739 442 509 442 322 56 0 0 0 0 0 0 0 0 0 0 0 0 0 0 0 0 0 0 0
1356 1096 885 816 845 861 1005 980 886 630 410 325 113 0 0 0 0 0 0 0 0 0 0 0 0 0 0 0 0 0 0 0
1640 1135 989 917 962 919 1065 1009 737 758 621 421 5 0 0 0 0 0 0 0 0 0 0 0 0 0 0 0 0 0 1 1

GFSFLT2_con_sbcape_051.txt.gz
CAPE
184 222 259 248 225 191 204 325 426 492 511 450 407 315 286 473 543 445 331 266 215 168 78 10 0 0 0 0 0 0 0 0
38 3 85 132 229 124 207 281 345 341 318 289 269 230 246 299 313 317 309 259 206 79 16 0 0 0 0 0 0 0 0 0
5 3 2 147 159 158 276 404 343 257 244 185 101 34 0 51 178 281 327 263 120 9 0 0 0 0 0 0 0 0 0 0
2 0 11 22 92 99 139 396 275 217 173 193 95 148 161 46 167 199 172 127 28 0 0 0 0 0 0 0 0 0 0 0
0 0 6 0 36 53 100 199 243 213 220 228 267 209 123 178 89 0 0 0 0 0 0 0 0 0 0 0 0 0 0 0
16 11 0 69 31 70 103 181 245 215 300 399 411 308 307 248 109 11 0 0 0 0 1 0 0 0 0 0 0 0 0 0
6 2 0 12 72 75 148 112 84 178 254 333 330 286 410 245 267 113 60 48 11 1 0 0 0 0 0 0 0 0 0 0
18 42 27 36 33 52 113 142 162 232 329 360 456 427 449 143 189 107 106 77 51 7 0 0 0 0 0 0 0 0 0 0
3 6 29 20 33 50 81 203 229 282 266 520 568 354 347 323 342 212 137 86 36 0 0 0 0 0 0 0 0 0 0 0
10 6 56 27 35 53 75 245 230 194 242 515 607 317 268 282 235 176 109 49 2 0 0 0 0 0 0 0 0 0 0 0
12 20 2 37 186 247 365 250 74 4 161 428 535 606 599 674 340 230 106 30 5 0 0 0 0 0 0 0 0 0 0 0
90 92 114 235 367 165 50 160 155 208 379 545 619 741 666 624 337 251 83 19 0 0 0 0 0 0 0 0 0 0 0 0
217 322 400 386 253 118 0 135 139 195 378 554 603 606 499 458 305 202 61 8 1 0 0 0 0 0 0 0 0 0 0 0
260 240 267 555 419 175 40 15 53 90 277 628 559 522 419 374 303 94 36 10 0 0 0 0 0 0 0 0 0 0 0 0
385 410 528 569 576 397 103 8 64 101 271 492 558 599 463 277 247 84 36 12 8 0 0 0 0 0 0 0 0 0 0 0
415 410 438 446 522 509 288 69 8 83 244 419 532 401 174 46 74 34 0 3 2 0 0 0 0 0 0 0 0 0 0 0
762 476 383 410 573 621 660 322 109 188 430 676 854 519 191 103 25 3 0 0 0 0 1 0 0 0 1 0 0 0 0 0
991 572 480 484 659 789 970 743 428 152 700 867 811 634 331 84 1 1 0 0 0 0 0 0 0 0 0 0 0 3 11 12
1323 769 507 555 674 855 987 992 861 672 535 977 687 506 260 23 2 0 0 0 0 1 0 0 0 0 0 0 0 1 0 0
1353 1216 1045 702 568 870 1256 1124 1518 1277 1172 978 861 738 570 7 0 0 0 0 0 0 0 0 0 0 0 0 0 0 0 10

GFSFLT2_con_sbcape_054.txt.gz
CAPE
280 218 303 252 354 432 485 624 686 689 614 486 533 692 792 841 639 393 302 240 185 78 14 0 0 0 0 0 0 0 0 0
107 34 3 1 52 202 321 460 489 416 292 235 264 385 426 402 334 282 233 210 131 36 3 0 0 0 0 0 0 0 0 0
72 3 1 4 0 100 357 448 329 233 189 197 153 214 192 148 212 249 224 149 76 8 0 0 0 0 0 0 0 0 0 0
10 6 4 0 8 13 83 279 248 154 99 76 59 56 117 148 218 243 192 75 5 0 0 0 0 0 0 0 0 0 0 0
1 3 12 17 16 28 56 88 179 243 196 146 180 120 111 84 51 39 18 1 0 0 0 0 0 0 0 0 0 0 0 0
2 0 0 0 6 28 31 21 124 195 285 315 253 193 185 60 28 9 0 0 0 0 0 0 0 0 0 0 0 0 0 0
4 5 0 0 0 3 9 70 124 133 273 317 369 253 268 115 103 7 0 0 0 1 0 0 0 0 0 0 0 0 0 0
9 8 21 14 0 1 8 58 138 173 280 294 371 337 360 296 335 177 75 64 13 1 0 0 0 0 0 0 0 0 0 0
16 12 18 16 2 51 46 90 184 261 283 351 294 347 329 302 319 279 141 107 70 8 0 0 0 0 0 0 0 0 0 0
3 1 0 0 0 0 5 49 263 231 259 254 387 405 315 317 263 330 263 126 32 5 0 0 0 0 0 0 0 0 0 0
6 0 0 0 0 0 24 68 177 142 126 264 400 414 372 344 388 302 275 55 12 0 0 0 0 0 0 0 0 0 0 0
0 0 0 0 0 0 18 93 137 43 7 178 360 404 516 425 345 355 93 35 12 0 0 0 0 0 0 0 0 0 0 0
0 0 0 0 38 21 10 57 11 0 19 283 463 408 450 407 417 263 75 44 9 1 0 0 0 0 0 0 0 0 0 0
0 0 0 0 15 15 0 0 18 6 33 383 519 499 492 470 387 153 67 44 18 0 0 0 0 0 0 0 0 0 0 0
42 29 3 0 58 102 56 0 0 21 52 271 363 332 316 352 316 182 72 42 0 0 0 0 0 0 0 0 0 0 0 0
199 224 222 188 284 288 175 2 0 3 0 193 333 486 382 329 252 222 135 12 0 0 0 0 0 0 0 0 0 0 0 0
279 321 283 302 419 513 316 126 17 0 104 133 411 521 423 237 124 83 21 0 0 0 0 0 0 0 0 0 0 0 0 0
400 422 364 340 579 661 534 363 188 103 202 316 573 491 260 128 81 63 0 0 0 0 0 0 0 0 0 0 0 0 0 0
552 530 477 416 425 640 501 709 569 266 307 451 556 521 338 200 118 5 0 0 0 0 0 0 0 0 0 0 0 0 0 0
609 592 579 542 499 691 752 590 735 573 526 436 411 474 338 221 44 0 0 0 0 0 0 0 0 0 0 0 0 0 0 0

GFSFLT2_con_sbcape_057.txt.gz
CAPE
465 399 368 180 167 252 392 733 786 876 1031 1140 1082 890 853 507 376 264 203 100 25 1 0 0 0 0 0 0 0 0 0 0
83 148 74 18 14 100 246 399 372 365 590 673 737 752 682 416 287 243 193 98 30 0 0 0 0 0 0 0 0 0 0 0
55 1 1 0 0 35 323 372 231 192 330 204 231 209 194 184 249 229 171 116 29 0 0 0 0 0 0 0 0 0 0 0
6 1 2 0 0 3 49 99 58 39 36 17 89 55 164 254 276 225 156 102 15 0 0 0 0 0 0 0 0 0 0 0
3 3 0 0 0 0 0 9 26 9 25 17 57 119 176 191 133 58 31 16 0 0 0 0 0 0 0 0 0 0 0 0
1 2 0 0 0 0 0 0 12 31 40 42 88 70 98 37 38 16 0 0 0 0 0 0 0 0 0 0 0 0 0 0
2 0 0 0 0 3 0 2 30 59 137 121 149 76 21 22 26 1 0 0 0 0 0 0 0 0 0 0 0 0 0 0
0 1 0 0 0 4 0 11 12 32 137 203 179 88 45 57 52 0 0 0 0 0 0 0 0 0 0 0 0 0 0 0
0 0 0 0 0 0 0 11 11 26 108 183 192 193 200 126 146 40 0 0 0 0 0 0 0 0 0 0 0 0 0 0
6 2 0 0 0 0 0 5 9 59 81 145 159 150 196 125 91 101 2 0 0 0 0 0 0 0 0 0 0 0 0 0
12 2 0 0 2 0 0 2 23 50 109 121 115 174 204 52 125 74 63 0 0 0 0 0 0 0 0 0 0 0 0 0
0 0 0 0 0 0 0 0 10 57 15 22 135 177 172 142 97 139 2 0 0 0 0 0 0 0 0 0 0 0 0 0
0 0 0 0 0 0 0 0 0 19 12 0 66 128 237 259 198 89 0 0 0 0 0 0 0 0 0 0 0 0 0 0
0 0 0 0 0 0 0 0 0 0 0 0 115 156 207 208 191 56 0 0 0 0 0 0 0 0 0 0 0 0 0 0
0 0 0 0 0 0 0 0 0 0 0 0 176 176 171 201 148 18 0 0 0 0 0 0 0 0 0 0 0 0 0 0
0 0 0 0 0 0 0 0 0 0 0 0 35 98 120 181 145 34 0 0 0 0 0 0 0 0 0 0 0 0 0 0
0 0 0 0 0 0 0 0 0 0 0 0 16 113 111 124 95 8 0 0 0 0 0 0 0 0 0 0 0 0 0 0
0 0 0 0 0 0 10 43 0 0 0 0 36 123 132 83 24 0 0 0 0 0 0 0 0 0 0 0 0 0 0 0
6 5 21 25 18 26 50 135 75 0 0 0 33 140 90 73 51 0 0 0 0 0 0 0 0 0 0 0 0 0 0 0
34 17 38 48 49 103 140 187 203 46 19 8 68 108 148 69 0 0 0 0 0 0 0 0 0 0 0 0 0 0 0 0

GFSFLT2_con_sbcape_060.txt.gz
CAPE
490 508 525 341 170 64 161 710 875 1048 947 867 843 521 463 381 220 98 50 0 0 0 0 0 0 0 0 0 0 0 0 0
330 283 241 17 7 3 57 446 722 922 881 739 589 396 378 255 142 108 67 7 0 0 0 0 0 0 0 0 0 0 0 0
231 118 49 2 14 64 196 412 428 480 301 251 252 167 97 32 101 102 93 21 9 0 0 0 0 0 0 0 0 0 0 0
3 0 0 0 40 69 238 311 224 181 62 64 52 50 47 63 86 127 124 51 13 0 0 0 0 0 0 0 0 0 0 0
1 1 0 1 15 34 10 0 4 19 2 6 57 80 66 26 21 21 27 14 0 0 0 0 0 0 0 0 0 0 0 0
3 1 0 0 0 0 0 0 0 0 0 5 29 37 17 14 3 3 0 0 0 0 0 0 0 0 0 0 0 0 0 0
1 0 0 0 0 0 0 0 0 0 0 6 23 16 0 4 1 0 0 0 0 0 0 0 0 0 0 0 0 0 0 0
4 1 0 0 0 0 0 0 12 19 16 0 0 1 6 0 0 0 0 0 0 0 0 0 0 0 0 0 0 0 0 0
1 0 0 0 0 0 0 0 0 16 56 40 12 1 3 0 0 0 0 0 0 0 0 0 0 0 0 0 0 0 0 0
3 3 0 0 0 0 0 0 0 6 48 86 78 72 20 19 22 3 0 0 0 0 0 0 0 0 0 0 0 0 0 0
4 0 0 0 0 0 0 0 0 9 6 26 79 96 126 71 27 26 2 0 0 0 0 0 0 0 0 0 0 0 0 0
1 0 0 0 0 0 0 0 9 7 14 13 43 96 145 25 22 13 9 0 0 0 0 0 0 0 0 0 0 0 0 0
1 0 0 0 0 0 0 0 4 18 9 6 9 51 95 92 53 56 6 0 0 0 0 0 0 0 0 0 0 0 0 0
1 0 0 0 0 0 0 0 0 0 4 0 0 52 86 84 82 62 9 0 0 0 0 0 0 0 0 0 0 0 0 0
0 0 0 0 0 0 0 0 0 0 0 0 0 0 13 40 58 29 0 0 0 0 0 0 0 0 0 0 0 0 0 0
0 0 0 0 0 0 0 0 0 0 0 0 0 0 0 8 45 8 0 0 0 0 0 0 0 0 0 0 0 0 0 0
0 0 0 0 0 0 0 0 0 0 0 0 0 0 0 33 23 0 0 0 0 0 0 0 0 0 0 0 0 0 0 0
0 0 0 0 0 0 0 0 0 0 0 0 0 0 0 24 30 4 0 0 0 0 0 0 0 0 0 0 0 0 0 0
0 0 0 0 0 0 0 0 0 0 0 0 0 0 0 20 17 9 0 0 0 0 0 0 0 0 0 0 0 0 0 0
0 0 0 0 0 0 0 0 0 0 0 0 0 0 13 43 11 12 0 0 0 0 0 0 0 0 0 0 0 0 0 0

GFSFLT2_con_sbcape_063.txt.gz
CAPE
417 285 335 124 62 92 59 171 485 583 756 661 576 355 203 101 2 0 0 0 0 0 0 0 0 0 0 0 0 0 0 0
237 118 135 10 42 36 0 17 252 419 627 475 318 256 157 24 0 0 0 0 0 0 0 0 0 0 0 0 0 0 0 0
232 132 29 3 1 0 0 58 172 299 364 328 179 68 0 0 0 0 0 0 0 0 0 12 2 0 0 0 0 0 0 0
132 31 8 4 3 0 0 2 28 102 162 177 143 14 0 0 0 0 0 0 0 0 0 0 0 0 0 0 0 0 0 0
1 1 6 4 7 7 0 0 0 54 121 116 44 7 0 0 0 0 0 0 0 0 0 0 0 0 0 0 0 0 0 0
2 1 1 6 13 11 29 55 64 80 68 65 45 13 0 0 0 0 0 0 0 0 0 0 0 0 0 0 0 0 0 0
1 1 0 1 1 1 0 0 0 20 25 28 11 2 0 0 0 0 0 0 0 0 0 0 0 0 0 0 0 0 0 0
2 4 1 0 0 0 0 0 0 10 4 13 0 0 0 0 0 0 0 0 0 0 0 0 0 0 0 0 0 0 0 0
2 1 1 0 0 0 0 0 0 0 7 8 0 0 0 0 0 0 0 0 0 0 0 0 0 0 0 0 0 0 0 0
3 5 1 0 0 0 0 0 0 14 25 25 3 0 0 0 0 0 0 0 0 0 0 0 0 0 0 0 0 0 0 0
5 1 0 0 0 0 0 0 0 9 55 42 31 22 14 1 0 0 0 0 0 0 0 0 0 0 0 0 0 0 0 0
1 1 1 0 0 0 0 0 0 3 20 64 78 75 71 34 29 11 0 0 0 0 0 0 0 0 0 0 0 0 0 0
0 1 0 0 0 1 0 1 1 3 7 26 66 76 107 75 56 9 0 4 0 0 0 0 0 0 0 0 0 0 0 0
0 0 0 0 0 0 0 0 0 1 10 19 11 40 54 59 27 14 9 0 0 0 0 0 0 0 0 0 0 0 0 0
1 0 0 0 0 0 0 0 0 0 0 3 9 9 23 40 24 18 0 0 0 0 0 0 0 0 0 0 0 0 0 0
0 0 0 0 0 0 0 0 0 0 0 0 0 5 3 0 16 14 0 0 0 0 0 0 0 0 0 0 0 0 0 0
0 0 0 0 0 0 0 0 0 0 0 0 0 0 0 0 0 0 0 0 0 0 0 0 0 0 0 0 0 0 0 0
0 0 0 0 0 0 0 0 0 0 0 0 0 0 0 0 0 0 0 0 0 0 0 0 0 0 0 0 0 0 0 0
0 0 0 0 0 0 0 0 0 0 0 0 0 0 0 0 0 12 12 0 0 0 0 0 0 0 0 0 0 0 0 0
0 0 0 0 0 0 0 0 0 0 0 0 0 0 0 0 0 0 0 0 0 0 0 0 0 0 0 0 0 0 0 0

GFSFLT2_con_sbcape_066.txt.gz
CAPE
391 196 331 344 207 243 202 118 284 541 562 462 347 238 216 185 23 0 0 87 151 5 0 0 0 0 0 0 0 0 0 0
312 90 94 0 0 7 77 29 302 597 580 369 227 182 136 0 0 0 0 1 30 0 0 0 0 0 0 0 0 0 0 0
109 52 9 3 0 6 10 131 124 371 423 279 133 41 0 0 0 0 0 0 0 0 0 0 0 0 0 0 0 0 0 0
77 105 23 2 5 3 2 14 85 139 230 190 79 0 0 0 0 0 0 0 0 15 5 1 0 0 0 0 0 0 0 0
37 5 2 1 0 0 0 37 24 59 177 166 48 0 0 0 0 0 0 0 0 0 0 0 0 0 0 0 0 0 0 0
2 2 2 3 0 0 0 0 9 22 63 111 37 0 0 0 0 0 0 0 0 0 0 0 0 0 0 0 0 0 0 0
1 6 6 15 5 1 0 0 0 0 1 67 8 0 0 0 0 0 0 0 0 0 0 0 0 0 0 0 0 0 0 0
4 1 4 8 9 14 18 39 6 31 25 44 18 0 0 0 0 0 0 0 0 0 0 0 0 0 0 0 0 0 0 0
1 1 1 1 4 5 5 22 2 39 29 0 1 0 0 0 0 0 0 0 0 0 0 0 0 0 0 0 0 0 0 0
2 3 0 1 0 0 0 3 16 5 0 0 1 1 0 0 0 0 0 0 0 0 0 0 0 0 0 0 0 0 0 0
3 2 1 1 0 0 0 0 0 0 3 5 5 7 1 0 0 0 0 0 0 0 0 0 0 0 0 0 0 0 0 0
1 1 1 1 0 0 0 0 0 0 6 6 4 13 4 1 0 0 0 0 0 0 0 0 0 0 0 0 0 0 0 0
1 1 1 0 0 0 0 0 0 0 1 11 20 31 36 21 3 0 2 0 0 0 0 0 0 0 0 0 0 0 0 0
1 1 0 0 0 0 0 0 0 0 0 11 40 66 97 78 37 29 38 22 2 0 0 0 0 0 0 0 0 0 0 0
0 0 0 0 0 0 0 0 0 0 2 1 5 37 56 67 70 19 11 3 17 0 0 0 0 0 0 0 0 0 0 0
0 0 0 0 0 0 0 0 1 0 0 0 5 13 17 35 62 43 26 2 8 0 0 0 0 0 0 0 0 0 0 0
0 0 0 0 0 0 0 0 0 0 0 0 0 0 1 0 12 12 9 6 17 2 0 0 0 0 0 0 0 0 0 0
0 0 0 0 0 0 0 0 0 0 0 0 0 0 0 0 0 0 2 0 0 0 0 0 0 0 0 0 0 0 0 0
0 0 0 0 0 0 0 0 0 0 0 0 0 0 0 0 0 0 0 0 0 0 0 0 0 0 0 0 0 0 0 0
0 0 0 0 0 0 0 0 0 0 0 0 0 0 0 0 0 0 0 0 0 0 0 0 0 0 0 0 0 0 0 0

GFSFLT2_con_sbcape_069.txt.gz
CAPE
784 915 956 944 890 610 612 789 786 687 499 509 470 334 361 267 56 88 365 362 157 1 0 0 0 0 0 0 0 0 0 0
535 845 488 882 908 365 312 313 269 264 398 318 223 283 246 87 11 170 354 253 72 0 0 0 0 0 0 0 0 0 0 0
766 596 112 105 169 169 29 40 67 122 201 261 163 320 99 0 0 160 253 89 16 0 0 0 0 0 0 0 0 0 0 0
277 193 19 32 14 1 0 4 0 23 128 238 204 103 11 0 0 41 119 80 45 0 0 0 0 0 0 0 0 0 0 0
101 110 92 32 73 42 50 31 13 39 86 153 117 30 12 3 0 0 48 73 10 0 0 0 0 0 0 0 0 0 1 1
82 43 23 8 21 4 38 25 32 59 145 205 94 12 0 4 0 0 0 17 46 0 0 0 0 0 0 0 0 0 0 3
4 9 2 2 1 2 9 5 3 67 119 146 33 2 0 0 0 0 0 0 0 0 0 0 0 0 0 0 0 0 0 2
2 7 4 3 2 2 5 7 83 96 103 118 59 2 27 0 1 0 0 0 0 0 0 0 0 0 0 0 0 0 0 0
5 8 9 3 3 1 2 15 19 47 72 58 43 25 32 3 0 0 0 0 0 0 0 0 0 0 0 0 0 0 0 0
9 3 4 9 4 11 27 58 50 90 83 28 40 49 21 5 0 0 0 0 0 0 0 0 0 0 0 0 0 0 0 0
8 3 2 4 6 16 21 46 38 11 4 3 20 26 29 19 1 0 0 6 0 0 0 0 0 0 0 0 0 0 0 0
4 4 2 1 1 0 0 21 50 16 1 6 6 38 25 34 28 8 8 25 10 0 0 0 0 0 0 0 0 0 0 0
8 2 2 1 2 9 0 0 0 5 1 4 12 26 41 31 17 32 39 19 33 37 21 0 0 0 0 0 0 0 0 0
7 4 2 2 1 1 0 1 1 0 0 0 0 40 50 52 33 57 32 76 78 24 32 34 19 0 0 0 0 1 0 0
8 6 1 1 1 0 1 0 0 0 0 0 0 24 63 71 67 117 102 123 130 100 49 58 101 0 0 27 1 13 0 0
10 6 3 6 1 0 1 1 0 0 0 0 0 19 72 115 132 135 121 176 184 99 110 107 102 97 0 0 0 0 0 0
10 10 7 3 2 0 0 5 0 0 0 0 0 0 18 57 127 103 136 101 120 198 116 46 46 96 2 0 0 0 0 0
9 2 2 2 1 0 0 1 1 0 0 0 0 0 4 20 56 145 204 176 206 202 146 110 81 36 28 0 0 0 0 0
2 2 2 5 3 0 0 0 0 1 0 0 0 0 0 17 77 78 89 60 96 123 128 110 101 87 48 16 0 0 0 0
2 2 1 4 4 2 0 0 0 0 0 0 0 1 5 2 10 18 30 36 55 92 122 120 115 123 69 22 0 0 1 3

GFSFLT2_con_sbcape_072.txt.gz
CAPE
1431 1087 968 659 818 738 760 1121 1113 1017 1021 875 807 592 536 552 467 344 408 194 64 7 7 4 0 0 0 0 0 0 0 1
882 1102 894 812 1023 541 620 635 777 748 746 524 354 364 217 181 289 484 410 184 2 3 1 0 0 0 0 0 0 0 0 0
613 1023 1111 1067 824 468 304 437 439 351 331 249 206 339 205 123 147 342 279 97 0 0 1 0 0 0 0 0 0 0 0 2
930 1043 1032 383 447 210 53 106 206 67 103 116 168 350 199 13 246 253 167 50 2 0 0 0 0 0 0 0 0 0 0 5
755 253 210 132 63 9 22 2 1 46 98 72 203 258 109 100 377 280 115 3 0 0 0 0 0 0 0 0 0 0 0 1
260 266 133 104 23 21 7 1 1 11 34 99 252 166 102 193 236 169 58 7 0 0 0 0 0 0 0 0 0 0 0 1
187 236 182 39 82 81 17 10 2 28 77 113 221 98 75 47 194 219 134 158 93 12 0 0 0 0 0 0 0 1 0 2
28 10 36 5 39 14 25 12 11 55 77 106 220 120 83 12 66 110 179 222 137 14 0 0 0 0 0 0 0 0 0 3
21 7 2 1 2 2 5 27 52 53 63 88 112 101 55 66 55 40 15 54 23 3 0 0 0 0 0 0 0 0 0 0
15 12 6 9 9 4 11 36 60 77 68 98 82 89 108 57 31 15 6 23 2 0 0 0 0 0 0 0 0 0 0 0
17 22 7 13 11 7 15 37 59 94 72 53 65 75 105 52 40 24 40 1 0 1 0 0 0 0 0 0 0 0 0 0
11 16 7 6 6 16 17 42 103 59 43 42 36 58 76 35 14 77 83 28 24 8 5 1 0 0 0 0 0 0 0 0
23 4 2 8 16 19 9 37 40 56 61 50 81 62 50 47 34 78 119 101 148 114 73 48 19 2 0 0 0 0 0 0
24 6 4 8 5 7 8 12 43 69 21 26 13 76 44 58 63 112 153 154 218 182 139 108 162 75 99 182 134 48 0 0
11 7 12 9 27 43 10 2 2 3 11 21 9 26 75 41 21 18 84 168 166 196 176 212 269 135 131 228 252 226 211 58
11 1 11 9 6 2 15 27 4 16 3 2 10 5 48 56 15 25 73 183 187 282 239 286 321 339 140 144 218 203 181 127
10 6 20 9 6 6 4 18 0 0 4 0 0 11 62 57 57 69 87 131 253 322 280 310 345 372 345 224 115 85 37 111
10 8 10 11 15 10 8 6 8 10 5 19 5 3 13 48 56 116 155 189 275 307 334 379 387 322 268 338 299 232 169 125
2 2 3 13 17 17 10 24 32 10 2 5 2 1 1 2 35 54 76 100 80 178 199 293 266 373 271 302 334 340 308 156
0 0 0 4 12 15 17 22 40 26 13 9 20 6 9 26 48 27 42 64 67 154 227 174 228 289 298 283 282 285 334 109

GFSFLT2_con_sbcape_075.txt.gz
CAPE
1624 1405 650 580 494 66 0 295 889 1301 1311 1227 1090 797 557 619 573 496 256 147 138 19 7 0 0 0 0 0 0 3 6 4
1449 1332 1082 899 820 301 276 307 369 797 998 920 651 507 588 510 463 340 197 127 60 6 1 0 0 0 0 0 0 0 4 1
663 1358 1285 1350 822 592 356 290 318 356 621 445 182 220 331 302 303 232 152 72 11 8 3 1 0 0 0 0 0 11 8 3
1226 1141 1031 966 366 267 234 396 619 243 274 106 40 89 332 307 336 172 96 0 4 3 1 0 0 0 0 0 3 8 13 2
912 1022 926 767 482 476 341 222 184 155 5 1 16 118 250 254 339 189 6 0 0 0 0 0 0 0 0 4 2 7 18 3
748 343 175 78 8 21 150 237 56 3 0 6 85 60 230 416 241 144 0 0 0 0 0 13 0 0 0 0 1 11 14 2
639 334 123 78 17 3 3 3 3 18 24 33 72 66 187 258 262 154 3 1 0 0 8 2 2 0 0 4 6 13 7 5
260 415 109 54 19 7 5 4 2 7 33 51 77 65 148 286 283 240 170 150 8 6 7 0 0 0 1 7 8 10 14 8
160 51 151 22 38 22 12 3 1 21 17 60 74 102 220 278 352 364 255 255 212 91 0 0 0 0 0 0 1 4 13 17
25 20 8 15 20 2 5 5 1 7 64 67 75 159 173 241 226 303 306 302 173 30 0 0 0 0 0 0 0 0 3 10
34 10 10 5 6 6 12 7 19 27 64 50 82 131 168 179 147 169 254 182 178 57 9 0 0 0 0 0 0 0 0 0
30 18 21 6 3 8 11 22 24 27 32 41 90 143 167 165 160 180 102 92 58 16 65 6 1 0 0 0 0 0 0 0
46 18 23 17 12 10 12 10 12 59 15 19 62 88 132 157 166 217 191 113 72 145 59 93 23 7 0 0 0 1 0 0
24 19 28 17 5 10 8 15 9 35 26 12 19 70 64 77 97 131 175 112 197 226 240 137 124 88 14 62 41 15 24 24
17 19 11 10 23 19 21 22 34 53 53 39 15 52 63 57 81 128 183 202 211 228 281 243 239 135 184 271 208 185 319 146
13 19 17 11 24 10 5 3 5 14 13 1 5 16 71 59 56 76 177 190 174 354 350 342 216 156 93 151 327 414 117 183
8 6 25 10 19 21 4 6 4 16 5 11 3 2 30 71 45 42 41 95 109 259 264 258 242 201 169 396 207 215 373 187
4 9 16 18 6 34 29 97 26 14 10 4 4 1 7 26 15 32 23 43 24 143 247 214 294 283 113 416 239 210 177 277
2 4 22 11 20 29 42 57 59 14 29 10 7 0 2 1 21 21 2 0 35 35 144 219 108 56 157 194 216 267 355 283
4 1 17 35 13 27 21 19 18 36 16 9 44 12 8 1 0 0 1 1 59 75 65 165 80 182 251 356 185 301 339 327

GFSFLT2_con_sbcape_078.txt.gz
CAPE
1709 1005 659 488 349 185 40 21 13 116 1169 1325 1167 915 764 791 728 634 517 154 39 20 0 0 0 0 0 0 0 5 0 0
1754 1901 1195 690 643 102 48 39 1 105 761 901 602 581 614 625 392 333 248 122 50 6 0 0 0 0 0 0 0 17 0 0
1178 1487 1438 1132 992 542 90 118 0 85 601 515 281 400 462 380 151 111 105 67 20 13 0 0 0 0 0 0 0 1 0 0
987 928 1017 636 560 480 216 129 156 120 127 224 239 208 201 144 171 87 55 33 28 3 0 0 0 0 0 0 0 9 0 0
1231 1153 916 532 307 340 118 222 144 136 88 39 24 6 33 101 119 50 5 1 0 0 0 0 0 0 0 0 0 3 0 0
664 564 311 138 47 180 284 265 187 33 3 5 0 0 19 93 71 20 0 0 0 0 0 0 0 0 0 0 0 1 0 0
636 373 124 8 3 3 87 52 99 25 7 8 0 1 11 24 69 0 0 0 0 0 0 0 0 0 3 0 11 1 0 0
658 392 140 9 12 2 1 1 12 2 2 33 1 7 31 50 75 0 2 0 0 0 0 0 0 0 0 0 13 7 0 0
444 346 111 61 19 8 4 1 1 5 5 2 1 9 23 71 65 24 27 4 0 0 0 0 0 0 0 0 1 22 0 0
251 73 83 26 29 2 2 1 2 1 6 4 7 12 31 112 113 97 110 28 4 2 0 0 0 0 0 0 0 4 11 0
104 12 3 12 17 3 0 1 2 1 0 0 0 25 38 89 143 193 210 118 113 2 5 0 0 0 0 0 0 0 0 1
37 11 4 1 2 4 2 1 2 4 5 0 0 0 27 59 59 81 56 90 80 2 12 2 0 0 0 0 0 0 0 0
8 5 3 6 4 5 4 5 4 11 12 3 3 2 23 57 50 60 52 24 12 5 25 3 5 0 0 0 0 0 0 0
7 12 6 5 5 4 3 4 5 2 5 0 0 14 30 42 56 63 60 42 25 75 26 48 29 13 0 0 0 0 0 0
4 14 17 5 6 11 3 4 8 12 13 3 1 8 39 49 82 77 76 56 104 76 74 81 54 16 29 25 52 17 6 0
0 4 8 11 10 4 6 2 3 6 0 3 0 3 17 17 52 83 97 97 100 111 158 167 161 67 42 13 64 141 38 34
0 0 2 10 12 6 11 6 3 0 9 15 0 0 16 30 11 48 62 83 104 116 150 198 118 100 47 84 45 58 72 12
0 0 9 4 10 10 7 16 7 3 5 1 0 0 0 11 12 9 36 65 87 145 160 166 112 71 54 75 42 67 61 58
10 0 5 9 14 13 2 2 4 3 2 1 0 0 0 0 0 0 12 22 30 53 75 82 60 25 33 29 42 101 67 82
0 0 0 2 3 5 2 3 2 5 3 3 0 0 0 0 0 0 0 1 4 4 4 42 36 41 31 30 19 30 70 104

GFSFLT2_con_sbcape_081.txt.gz
CAPE
439 336 460 456 272 308 132 37 64 5 1 32 544 1022 905 865 767 693 529 333 147 32 3 0 0 0 0 0 0 0 0 0
1044 536 319 182 126 71 20 0 1 0 0 0 623 610 658 610 584 486 329 216 58 13 0 0 0 0 0 0 0 0 0 0
754 993 727 270 106 15 45 13 10 37 33 5 332 366 366 330 237 192 132 52 17 0 0 0 0 0 0 0 0 0 0 0
582 601 583 476 526 15 4 5 0 0 6 80 191 186 109 109 103 72 70 1 0 0 0 0 0 0 0 0 0 0 0 0
632 550 323 278 156 61 35 32 0 1 10 57 110 101 50 17 11 3 2 1 0 0 0 0 0 0 0 0 0 0 0 0
683 287 142 127 37 30 28 39 26 28 48 24 1 7 12 3 2 0 0 0 0 0 0 0 0 0 0 0 0 0 0 0
279 123 8 0 0 0 2 37 52 31 37 20 0 12 9 0 0 0 0 0 0 0 0 0 0 0 0 0 0 0 0 0
152 31 0 0 0 1 1 0 6 17 3 0 0 6 30 0 0 0 0 0 0 0 0 0 0 0 0 0 0 0 0 0
66 0 0 0 0 1 1 1 1 2 0 0 0 2 1 0 0 0 0 0 0 0 0 0 0 0 0 0 0 0 0 0
73 38 0 0 0 0 1 1 1 1 2 1 1 0 2 0 0 0 0 0 0 0 0 0 0 0 0 0 0 0 0 0
4 1 3 2 0 0 1 1 1 2 2 3 0 0 16 2 0 0 0 1 0 0 0 0 0 0 0 0 0 0 0 0
0 1 8 3 1 1 1 2 1 1 1 1 0 0 3 18 38 44 42 32 0 0 0 0 0 0 0 0 0 0 0 0
0 2 1 5 2 1 1 2 2 2 0 0 0 6 0 8 15 20 54 58 0 0 0 0 0 0 0 0 0 0 0 0
0 0 6 3 3 2 1 2 4 2 0 0 0 0 0 0 0 5 6 0 0 0 0 0 0 0 0 0 0 0 0 0
0 0 3 3 3 3 2 5 3 10 5 0 0 0 0 0 0 9 0 0 0 0 0 4 0 0 0 0 1 0 0 0
0 0 0 2 4 2 1 3 2 4 1 0 0 0 0 0 0 0 0 0 6 8 1 0 6 0 0 10 12 11 9 3
0 0 3 6 8 6 1 1 1 1 0 0 0 0 0 0 0 0 4 16 17 22 9 38 31 0 0 0 1 3 9 0
0 0 4 2 4 6 2 1 0 2 0 0 0 0 0 0 0 0 0 22 39 23 63 91 68 48 18 13 9 15 9 5
0 0 0 4 3 10 6 0 0 0 1 1 0 0 0 0 0 0 0 11 31 64 80 82 77 50 41 24 20 20 18 22
0 0 0 0 6 4 2 5 0 0 0 0 0 0 0 0 0 0 0 16 20 48 77 77 62 24 2 3 12 14 31 50

GFSFLT2_con_sbcape_087.txt.gz
CAPE
571 680 899 973 1035 887 591 607 272 164 123 215 337 216 192 159 432 597 664 597 545 562 442 76 52 4 0 0 0 0 0 0
213 338 490 454 445 489 393 239 256 332 320 160 327 277 104 171 256 299 336 655 477 388 123 0 3 1 0 0 0 0 0 0
50 407 363 262 107 136 270 308 139 188 228 345 160 31 204 88 104 140 241 323 362 161 13 3 3 0 0 0 0 0 0 0
130 122 196 133 69 8 0 2 0 5 71 113 180 84 158 116 96 112 165 203 166 57 0 0 2 0 0 0 0 0 0 0
125 296 217 66 6 1 1 1 1 3 10 2 16 7 142 142 141 131 82 64 8 1 0 0 0 0 0 0 0 0 0 0
54 140 261 188 4 0 0 1 1 1 17 24 23 75 77 104 130 56 21 0 0 0 0 0 0 0 0 0 0 0 0 0
49 39 83 50 50 1 3 1 1 0 43 22 39 84 98 115 33 3 0 0 0 0 0 0 0 0 0 0 0 0 0 0
4 27 26 27 5 1 2 1 0 0 62 74 89 102 64 47 0 0 0 0 0 0 0 0 0 0 0 0 0 0 0 0
0 0 0 0 0 0 1 2 3 9 49 66 55 61 21 11 0 0 0 0 0 0 0 0 0 0 0 0 0 0 0 0
0 0 0 0 0 0 1 2 3 22 43 64 41 6 3 0 0 0 0 0 0 0 0 0 0 0 0 0 0 0 0 0
0 0 0 0 0 0 0 1 2 6 8 38 42 1 0 0 0 0 0 0 0 0 0 0 0 0 0 0 0 0 0 0
0 0 0 0 0 1 2 1 1 11 2 2 15 1 0 0 0 0 0 0 0 0 0 0 0 0 0 0 0 0 0 0
0 1 0 0 1 1 5 1 2 2 2 1 1 3 0 0 0 0 0 0 0 0 0 0 0 0 0 0 0 0 0 0
0 0 0 0 0 0 0 0 0 1 1 1 2 2 0 0 0 0 0 0 0 0 0 0 0 0 0 0 0 0 0 0
0 0 0 0 0 0 0 0 2 1 1 1 1 1 0 0 0 0 0 0 0 0 0 0 0 0 0 0 0 0 0 0
0 0 0 0 0 0 0 1 1 1 0 0 1 0 0 0 0 0 0 0 0 0 0 0 0 0 0 0 0 0 0 0
0 0 0 0 0 1 1 1 0 0 0 0 1 0 0 0 0 0 5 0 0 3 2 2 2 1 0 1 4 0 0 0
0 0 3 0 0 1 0 1 0 1 0 0 0 0 0 0 0 0 0 0 0 7 3 0 0 0 0 0 7 32 24 3
0 0 0 2 10 5 0 0 0 0 0 0 0 0 0 0 0 0 0 0 2 0 6 13 1 0 0 0 10 33 25 10
0 0 0 0 1 4 0 0 1 0 0 0 0 0 0 0 0 0 0 0 0 0 0 2 7 2 0 0 1 7 16 24

GFSFLT2_con_sbcape_090.txt.gz
CAPE
942 1129 1483 1381 1415 1054 481 424 400 678 523 404 431 347 355 512 577 599 765 894 880 771 442 303 161 52 9 0 0 0 0 0
542 609 958 1031 909 660 533 384 226 249 366 559 180 107 64 512 427 274 314 677 722 422 172 185 63 6 0 0 0 0 0 0
123 429 361 490 383 589 522 435 258 272 477 405 203 86 196 180 205 295 370 213 250 165 83 61 8 0 0 0 0 0 0 0
33 205 266 92 105 60 18 83 54 30 80 89 215 98 38 117 101 158 182 133 163 15 21 5 7 0 0 0 0 0 0 0
44 8 8 8 25 0 0 1 0 0 0 61 86 20 105 44 31 122 130 101 14 0 3 0 0 0 0 0 0 0 0 0
60 68 13 13 3 1 1 1 0 0 0 0 64 24 135 92 82 111 113 34 0 0 0 0 0 0 0 0 0 0 0 0
0 46 19 26 1 1 1 0 1 0 1 0 6 49 68 110 140 126 33 0 0 0 0 0 0 0 0 0 0 0 0 0
0 1 0 0 35 0 1 1 1 0 2 2 3 30 69 87 128 36 0 0 0 0 0 0 0 0 0 0 0 0 0 0
0 0 0 0 0 1 1 1 1 1 0 1 7 5 49 58 61 1 0 0 0 0 0 0 0 0 0 0 0 0 0 0
0 0 0 1 1 0 4 3 1 2 4 24 39 63 57 33 1 0 0 0 0 0 0 0 0 0 0 0 0 0 0 0
0 0 0 0 0 0 1 2 2 6 9 42 46 4 1 0 0 0 0 0 0 0 0 0 0 0 0 0 0 0 0 0
0 0 0 0 0 0 0 1 1 4 5 31 32 1 0 0 0 0 0 0 0 0 0 0 0 0 0 0 0 0 0 0
1 0 0 0 1 0 5 2 2 3 1 1 16 6 0 0 0 0 0 0 0 0 0 0 0 0 0 0 0 0 0 0
0 0 0 0 0 0 0 4 1 0 1 3 4 0 0 0 0 0 0 0 0 0 0 0 0 0 0 0 0 0 0 0
0 1 1 0 0 0 0 0 1 1 4 4 1 0 0 0 0 0 0 0 0 0 0 0 0 0 0 0 0 0 0 0
0 0 0 0 0 0 1 0 1 0 0 1 0 2 0 0 0 0 0 0 0 0 0 0 0 0 0 0 0 0 3 0
0 0 0 1 0 0 0 0 0 1 1 1 1 0 1 1 0 0 0 0 0 1 0 2 0 0 0 0 0 0 0 0
0 0 0 0 0 0 0 0 0 1 1 1 1 0 2 1 1 0 0 0 0 0 0 4 8 2 2 14 1 0 0 1
0 0 0 0 0 0 0 0 0 0 0 1 1 1 0 1 1 1 0 0 0 0 0 0 1 7 13 9 5 6 7 8
0 0 0 1 0 0 0 0 0 0 0 0 0 0 0 0 0 0 0 0 0 0 0 0 0 0 0 0 0 5 4 15

GFSFLT2_con_sbcape_093.txt.gz
CAPE
1058 1400 1466 1289 1281 1091 842 1002 947 1077 873 1062 913 703 628 600 630 797 786 672 890 915 655 426 313 155 10 0 0 0 21 5
905 1339 1597 1804 1532 636 479 500 658 648 736 490 177 70 205 307 248 599 597 473 732 705 379 270 183 25 0 0 0 0 0 0
811 1012 1206 1543 1014 677 526 455 379 350 483 308 74 158 154 154 110 168 478 294 495 387 229 146 29 0 0 0 0 0 0 0
539 718 1128 1249 919 965 515 355 338 380 608 575 555 412 342 205 331 208 288 138 213 228 143 27 19 19 0 0 0 0 0 0
235 332 449 1129 555 802 360 327 260 223 225 416 605 709 479 326 596 764 442 169 117 154 119 134 42 3 0 0 0 0 1 4
301 192 87 440 539 470 189 124 92 76 244 478 569 406 338 337 239 482 462 166 22 64 202 61 1 0 0 0 0 0 0 11
224 207 157 77 4 7 24 149 63 87 10 68 366 91 235 361 205 385 133 2 1 44 44 33 1 0 0 0 0 0 0 16
555 79 352 18 2 5 1 24 3 3 7 3 207 149 366 462 270 241 222 1 0 8 50 10 0 0 0 0 0 0 1 7
273 181 221 37 2 4 5 4 19 7 7 13 38 176 271 368 137 113 126 10 0 1 1 0 0 0 0 0 0 0 2 5
244 86 1 2 3 7 2 2 12 14 13 18 14 11 69 63 71 34 4 0 0 0 0 0 0 0 0 0 0 0 4 9
379 90 1 3 2 4 3 3 9 29 33 30 51 44 31 66 73 3 1 0 0 0 0 3 0 0 0 0 0 0 2 9
444 36 3 3 3 1 5 18 31 34 32 29 31 9 28 37 1 1 0 0 1 0 3 2 3 0 0 2 3 6 6 15
365 2 3 0 0 2 6 6 9 30 30 73 15 2 2 0 1 1 4 4 0 0 0 0 3 1 4 11 11 6 4 6
137 1 3 1 0 1 2 2 6 10 13 4 3 1 1 0 1 0 1 0 0 0 0 1 2 3 0 10 9 10 4 10
24 2 1 1 0 1 6 11 12 23 28 33 4 1 1 0 0 0 0 0 0 0 0 0 0 5 6 41 21 32 10 7
24 2 3 2 0 2 4 3 9 8 11 12 2 1 1 1 0 0 0 0 0 0 0 0 11 11 14 0 25 34 84 22
33 4 4 2 0 1 3 4 1 15 6 6 4 7 1 1 0 0 0 0 0 0 0 0 13 43 20 11 12 13 27 68
40 4 3 4 2 2 6 1 0 23 14 2 3 2 2 1 1 0 0 0 0 0 0 0 4 42 29 37 25 45 44 73
40 3 2 2 4 6 3 0 3 13 8 7 6 2 2 3 0 0 0 0 0 0 0 0 0 8 21 46 39 69 72 83
28 7 1 1 4 5 6 4 9 17 8 5 9 2 2 2 1 0 0 0 0 0 5 0 0 0 1 10 34 73 68 74

GFSFLT2_con_sbcape_096.txt.gz
CAPE
1885 1655 1358 1013 1148 1264 1346 1229 1283 1381 1473 1574 1419 1104 989 943 799 773 701 184 252 532 550 389 293 237 112 13 23 95 280 204
1723 1658 1582 1860 1900 951 830 963 977 922 958 736 585 752 759 742 539 632 619 669 663 599 366 265 171 114 32 0 0 0 180 133
1556 1641 1906 2129 2188 1484 726 711 715 652 644 236 288 1128 908 518 414 477 688 676 451 295 247 172 79 39 16 6 0 225 137 38
1465 1555 1958 2005 1891 1980 1705 1638 1314 1425 1284 907 1120 1119 970 467 234 44 152 171 201 140 180 78 117 246 169 2 185 155 114 57
1158 1365 1664 1959 1705 1741 1464 1352 1223 962 1253 1162 1025 944 745 570 647 769 621 284 500 100 95 288 317 348 140 202 124 117 32 35
1112 1091 1110 1817 1723 1332 1163 1052 791 642 587 958 1154 1122 1001 890 803 829 607 763 390 291 140 284 306 276 231 170 69 48 48 36
1268 917 940 1527 1477 1141 997 997 814 815 496 621 750 887 853 714 871 761 609 476 408 348 149 269 317 210 176 98 68 27 22 21
1575 706 752 1178 1218 905 688 618 933 801 557 526 693 792 763 767 738 792 613 290 233 135 254 290 360 189 161 120 70 20 11 16
1707 1111 890 759 992 709 795 352 771 675 328 179 195 684 577 534 766 618 206 66 178 66 208 221 223 153 171 138 75 10 12 17
1360 1158 617 744 841 341 255 221 286 334 251 162 175 343 348 401 328 647 155 33 86 24 132 187 181 168 150 106 13 13 17 21
1292 1348 760 649 617 434 226 390 50 158 191 190 287 246 210 183 189 184 9 4 6 33 185 216 172 152 145 111 12 28 39 33
1180 1372 908 537 479 242 188 327 48 208 291 237 273 187 80 62 84 11 1 1 1 4 130 183 241 155 97 87 37 80 72 14
948 1371 828 303 154 97 53 139 72 132 380 158 192 42 3 20 57 12 2 1 0 0 163 158 186 167 79 78 38 37 20 13
764 1245 431 278 502 515 156 20 45 81 102 64 112 30 2 8 30 1 3 1 1 8 174 136 114 135 67 64 44 40 19 20
577 1099 187 299 704 445 73 15 8 33 68 33 2 2 4 3 2 2 3 2 4 72 145 130 104 122 141 73 57 51 36 32
498 867 5 189 514 436 285 23 5 21 5 35 19 8 3 1 0 1 1 4 22 14 83 167 114 110 134 122 92 95 57 60
580 395 19 48 132 569 293 170 1 24 12 42 38 8 5 2 2 5 10 9 8 73 116 165 128 113 82 78 94 109 144 100
764 52 11 42 165 311 292 65 1 26 15 39 7 5 1 2 1 0 0 4 3 0 0 0 16 102 109 171 128 82 115 88
592 9 13 11 38 97 20 11 4 30 19 25 17 5 4 2 1 2 1 0 0 0 0 0 3 35 82 129 132 98 89 77
337 90 140 29 23 23 1 3 1 30 13 30 23 12 6 3 3 1 1 2 1 0 0 0 0 10 76 153 106 137 151 104

GFSFLT2_con_sbcape_099.txt.gz
CAPE
2080 1607 1259 862 1156 1270 1399 1266 1325 1268 1469 1424 1524 1388 1159 1260 1078 921 820 688 536 264 195 291 256 210 178 154 131 100 304 350
2151 2073 1691 1705 1592 1057 1074 1053 1034 1032 1119 1206 1203 1024 951 877 787 852 583 489 368 197 239 383 268 156 150 124 120 66 221 199
2162 2069 1854 1867 2016 1598 867 862 773 677 839 620 739 1510 1113 667 498 678 650 353 352 346 324 203 128 100 94 81 93 376 197 39
1992 2025 1995 1953 1861 2156 1891 1655 1486 1363 1342 1348 1696 1315 1362 884 462 423 626 483 409 315 143 115 101 203 299 50 312 257 165 52
1944 1862 2087 1863 1697 2112 2002 1989 1561 1651 1533 1511 1304 1106 1668 1460 968 306 294 133 453 170 165 101 121 183 476 350 356 171 141 84
1936 1852 1932 2012 1729 1616 1656 1726 1683 1623 1584 1503 1627 1431 1402 1203 867 1046 1137 1252 365 390 302 108 70 161 284 371 204 199 50 83
2156 1774 1732 1990 1673 1415 1527 1372 1295 1218 1075 1352 1393 1165 1231 1205 1129 1242 1040 831 866 703 175 161 89 154 293 183 141 89 63 65
2164 1792 1513 1906 1764 1661 1456 1419 1284 1445 881 785 1114 1193 1240 1116 963 854 992 749 732 211 137 86 90 118 260 181 81 39 26 41
2251 1973 1368 1792 1687 1477 1170 1052 965 993 1101 1033 661 865 997 786 1110 1154 820 884 431 331 114 100 87 194 164 136 35 25 14 14
1714 1953 1274 1334 1630 1419 1143 980 972 904 969 1241 871 843 651 315 572 728 898 622 600 219 216 93 79 200 152 81 54 8 15 33
1097 2141 1862 1183 1200 1381 1163 1152 927 776 736 741 870 813 664 714 651 744 762 322 295 158 217 106 78 144 128 82 43 9 19 22
632 1776 2017 1532 1154 1033 701 633 532 661 794 325 282 660 526 553 549 209 188 142 151 57 106 72 128 114 72 60 43 56 60 45
474 1626 2149 1437 984 703 727 757 462 565 449 529 419 461 432 267 55 6 1 7 12 19 111 52 70 182 97 92 100 104 70 24
33 917 1654 1531 799 771 814 652 557 769 498 331 235 405 332 112 20 10 2 2 1 12 26 94 154 132 118 45 53 36 42 29
0 256 1213 1459 1018 1040 984 823 424 482 422 382 389 278 200 34 11 6 2 1 1 2 21 49 103 142 81 26 34 28 26 36
0 107 842 1268 1207 1234 1182 715 502 274 363 71 79 18 4 3 5 6 8 0 2 5 34 48 101 106 122 102 73 59 15 78
96 257 841 949 1281 1382 1223 980 620 283 36 50 4 7 3 4 3 1 2 2 2 2 44 114 171 132 123 97 163 149 120 127
241 575 1269 817 924 1376 1192 1047 682 144 4 77 69 11 4 2 6 3 3 2 6 5 140 168 146 122 133 178 127 101 87 101
156 776 993 572 495 1143 1265 1097 617 122 80 34 14 7 6 6 2 2 7 7 1 19 50 76 153 168 138 127 102 109 144 159
251 961 492 130 294 1116 1160 1007 485 78 29 34 22 7 4 3 3 0 0 0 0 0 0 0 2 10 28 39 50 84 136 181

GFSFLT2_con_sbcape_102.txt.gz
CAPE
1507 1231 1054 1022 1045 1238 1172 1066 1193 1144 1271 1361 1512 1420 1230 955 941 906 800 625 673 742 461 262 189 176 192 182 117 56 237 214
2122 1845 1387 1328 1273 940 1075 1024 954 934 1029 1187 1277 1154 1024 894 817 858 860 794 670 498 372 233 172 130 112 49 93 41 183 121
2742 2437 1986 1910 1748 1175 777 827 742 652 853 931 878 1110 894 740 748 710 696 578 362 228 252 186 137 89 89 66 61 181 36 20
2387 2507 2317 2396 1603 1415 1421 1307 1029 1101 1276 1060 1479 1186 856 691 488 450 428 352 265 233 223 100 96 51 60 66 66 94 17 30
2077 2166 2466 2406 1756 2093 1722 1600 1511 1336 1473 1436 1439 902 883 517 261 462 233 218 216 219 120 67 58 41 68 67 109 71 40 31
2169 1953 2316 2208 2215 2142 1868 1533 1459 1227 1578 1648 1405 1112 942 641 445 318 455 295 330 165 118 94 23 24 64 113 119 169 25 6
1993 1868 2031 2153 2488 1511 1712 1636 1541 1136 1492 1415 1182 1064 941 730 574 594 483 398 323 188 143 103 41 24 86 84 224 87 19 26
2119 1936 1943 2033 2065 1889 1592 1239 1196 1275 873 1181 1475 1020 855 729 579 534 680 459 392 249 198 110 41 56 100 87 172 103 33 25
2247 2072 1557 1806 2064 2011 1334 1012 1242 1193 929 964 1132 1074 1083 720 578 654 683 443 510 237 99 94 63 86 78 73 109 39 9 3
2417 2190 1519 1393 2017 1848 1234 921 1039 1107 1071 847 730 720 696 667 624 658 594 475 333 142 47 65 46 50 58 57 41 9 2 0
2241 2148 1567 1213 1594 1865 1514 1051 791 798 892 1018 937 751 604 570 416 411 202 224 284 210 89 18 38 40 54 56 21 0 0 2
2359 2288 1691 1195 1139 1651 1280 1315 735 751 745 631 518 724 623 599 337 247 170 230 196 183 73 76 40 32 145 89 2 3 0 6
1640 2385 2128 1370 1018 973 891 826 578 338 561 673 411 389 334 295 173 142 154 114 78 138 69 92 37 32 40 27 67 41 13 18
100 1904 2296 1740 1024 889 612 467 415 309 289 504 393 393 381 225 71 34 83 37 49 70 39 23 24 7 12 15 24 46 42 17
0 481 1966 1950 1228 716 645 526 452 353 574 472 499 267 282 139 37 1 2 1 5 19 18 10 11 6 21 0 3 7 9 18
2 0 555 1884 1046 665 811 728 639 455 487 371 418 267 165 49 4 5 1 1 0 6 23 10 6 9 22 13 12 0 0 2
10 0 2 1629 1076 954 918 977 701 512 357 331 149 11 0 0 0 3 1 2 2 5 14 28 33 4 7 8 21 16 17 0
42 229 79 1604 1390 1165 1156 1167 774 532 339 227 15 1 4 0 3 4 13 1 3 1 1 4 24 13 15 17 19 37 5 0
0 24 134 1374 1363 1278 1450 1180 1135 664 141 70 0 1 1 2 3 1 1 1 2 3 10 12 18 34 29 31 64 75 57 42
0 0 338 1125 982 1107 1340 1178 1139 426 34 177 9 0 3 1 1 6 3 2 3 2 14 2 14 28 40 50 52 10 9 15

GFSFLT2_con_sbcape_105.txt.gz
CAPE
753 958 1009 1076 1143 1020 984 1141 1135 1074 1318 1482 1548 1404 1102 798 900 883 479 374 272 408 151 218 384 342 155 62 102 38 76 56
709 649 729 695 735 990 871 806 879 881 1024 1156 1335 1287 900 773 778 867 402 315 322 618 420 226 151 103 99 40 0 11 67 3
1030 814 719 719 621 748 896 822 705 631 744 980 855 625 686 604 616 681 546 494 602 482 264 130 63 64 77 63 17 0 0 3
1461 1105 999 966 1092 609 497 601 347 357 535 558 608 440 444 494 491 513 532 469 332 291 186 67 28 10 58 65 7 2 0 7
1756 1561 1405 1412 1259 585 711 569 378 368 557 513 598 343 141 131 214 273 257 123 29 81 34 9 14 7 28 23 27 8 0 6
1591 1613 1514 1390 1470 1092 978 884 599 499 494 641 289 274 81 24 145 66 37 0 0 0 0 0 0 0 0 18 58 46 0 0
1605 1452 1658 1439 1638 1423 1109 883 704 657 713 675 343 271 215 42 41 119 48 22 0 0 0 0 0 0 4 70 97 45 0 0
1608 1460 1483 1513 1402 1151 871 913 645 641 606 475 462 252 250 165 69 106 122 30 10 0 16 0 0 0 11 56 76 25 0 0
1612 1401 1329 1596 1493 925 619 604 580 545 432 748 492 290 203 100 80 56 53 29 11 6 25 0 0 0 25 60 79 35 0 3
1649 1594 1339 1358 1375 979 655 361 543 536 334 413 578 426 143 74 33 40 52 2 25 7 37 14 2 2 23 32 83 15 3 0
1657 1642 1339 1225 1116 1001 595 483 423 703 482 345 370 374 289 125 107 170 62 17 74 0 9 18 1 7 26 38 52 1 0 0
1727 1559 1211 1067 1203 838 571 376 274 165 436 481 323 339 220 154 40 53 0 23 64 8 0 0 11 13 81 72 39 0 0 0
1825 1468 1056 846 944 863 819 549 219 58 93 352 495 337 304 244 106 0 0 16 25 14 4 0 0 7 50 20 0 0 0 0
1811 1462 962 873 753 945 751 603 288 329 24 71 66 229 136 126 10 0 0 26 6 20 6 8 11 15 23 0 0 4 6 0
1700 1581 1057 888 699 526 161 163 178 156 126 76 14 8 25 4 0 0 0 33 53 46 13 12 7 15 4 0 1 6 2 3
0 1543 1309 912 611 552 287 234 291 212 101 56 38 14 0 0 0 0 0 1 2 6 10 8 4 27 1 7 0 0 0 3
0 0 486 1129 623 612 298 210 162 58 61 218 18 0 0 0 0 0 0 1 0 1 11 5 5 25 12 0 0 0 3 2
0 0 0 331 614 599 426 280 231 73 54 7 0 0 0 0 0 0 2 1 1 1 14 1 8 8 2 0 0 0 1 13
0 0 0 0 648 559 533 381 237 188 52 6 0 0 0 0 0 0 1 1 1 2 1 14 3 6 0 0 0 5 10 22
0 0 0 0 99 755 606 474 227 197 36 0 0 0 0 0 0 0 3 7 2 1 1 1 6 1 0 0 1 2 3 14

GFSFLT2_con_sbcape_108.txt.gz
CAPE
755 965 1126 1203 1235 1265 1427 1555 1657 1616 1506 1489 1521 1353 1078 1085 505 145 315 796 681 294 234 283 519 514 225 117 125 155 83 86
638 721 873 846 868 991 1141 1177 1202 1281 1430 1358 1323 1089 875 857 499 393 546 652 452 343 148 227 249 173 70 72 43 98 54 46
478 584 615 536 632 802 904 1016 972 984 1122 1176 925 794 639 746 528 280 258 256 449 411 261 165 132 83 23 7 39 70 70 34
508 465 548 457 712 711 526 677 471 433 594 601 574 477 354 570 485 268 219 273 292 507 269 93 39 0 30 31 24 57 39 26
823 580 596 700 809 380 299 228 105 171 307 401 317 228 286 341 428 322 207 317 292 240 116 9 0 0 14 19 31 35 47 42
1261 895 911 1021 743 418 403 310 87 112 170 290 177 110 42 81 277 188 110 12 6 8 0 0 0 0 4 18 33 24 31 39
1586 1264 1121 1139 981 653 634 516 321 183 232 263 73 41 14 8 42 47 43 0 0 0 0 0 0 0 0 11 21 28 15 31
1593 1491 1396 1265 1372 958 859 708 493 316 351 329 28 45 2 2 2 25 3 7 0 0 0 0 0 0 0 21 42 44 13 20
1657 1466 1394 1280 1476 1217 933 849 501 348 472 215 56 48 8 0 0 0 0 1 0 0 0 1 1 0 0 19 35 25 11 9
1728 1586 1360 1378 1306 1183 815 836 569 280 416 513 68 36 51 8 0 0 0 0 0 0 0 2 1 1 7 23 21 16 6 3
1746 1571 1196 1503 1272 1051 649 585 499 301 127 209 443 37 13 24 7 0 0 0 0 0 1 2 1 2 2 7 14 3 3 18
1652 1550 1244 1373 976 702 395 260 229 358 258 144 234 220 11 7 2 0 0 0 0 9 38 0 0 1 26 41 16 0 0 6
1415 1472 1277 1199 962 805 570 570 169 334 344 259 121 293 77 24 6 0 0 0 0 0 3 2 1 1 26 23 2 0 0 0
1295 1416 1115 1205 1423 1272 1031 718 316 168 155 322 212 132 140 125 32 0 0 0 1 1 1 1 1 3 2 29 6 2 0 0
1322 1294 1047 1189 1296 942 226 81 74 90 12 60 150 153 79 67 22 0 0 0 0 2 1 0 0 2 0 1 0 0 0 0
0 828 1090 913 655 914 546 677 535 489 357 20 8 39 27 17 0 0 0 0 10 1 2 1 0 0 0 0 0 0 0 1
0 0 0 0 465 634 441 716 553 18 33 38 3 0 0 13 0 0 0 0 2 2 6 6 0 5 2 0 0 0 0 0
0 0 0 0 1 554 594 394 87 42 5 5 7 4 0 0 0 0 0 0 0 0 4 6 3 13 3 0 0 0 0 0
0 0 0 0 0 0 571 278 65 77 36 12 6 0 0 1 0 0 0 0 0 1 3 28 33 11 5 0 0 0 0 0
0 0 0 0 0 0 214 542 136 66 68 33 0 0 0 0 0 0 0 0 0 2 11 15 13 1 2 0 0 0 0 0

GFSFLT2_con_sbcape_111.txt.gz
CAPE
859 1117 1278 1385 1431 1549 1583 1558 1516 1417 1493 1556 1639 1506 1125 1124 1056 1064 1102 976 878 944 789 705 661 507 306 193 211 167 89 106
640 783 896 947 1029 1236 1352 1506 1513 1394 1363 1419 1393 1115 935 763 686 751 822 798 726 428 193 343 466 301 144 97 136 137 85 89
510 716 630 628 678 958 1225 1373 1393 1368 1302 1263 953 853 855 466 30 318 594 632 357 207 110 82 168 160 52 25 106 73 74 76
419 577 503 470 765 712 676 928 838 908 1041 976 704 530 597 531 208 300 258 336 195 155 71 40 15 5 0 0 70 66 63 59
331 372 371 444 748 540 310 342 297 370 511 619 473 262 446 356 277 110 34 61 20 144 46 0 0 0 0 0 5 50 64 73
345 319 392 437 444 490 311 206 49 101 234 315 383 267 186 318 377 189 36 54 10 3 0 0 0 0 0 0 0 8 34 73
533 344 449 540 451 343 234 162 58 68 162 247 271 221 148 162 268 151 26 0 0 0 0 0 0 0 0 0 0 8 30 49
1019 614 556 690 634 426 410 280 83 52 165 229 129 167 67 105 24 15 1 0 0 0 0 0 0 0 0 2 8 0 6 45
1456 1069 822 907 923 557 531 458 282 179 246 133 76 43 11 27 27 0 0 0 0 0 0 0 0 0 0 0 0 0 4 40
1703 1583 1130 1038 1171 850 760 671 463 277 288 247 47 34 0 0 0 0 0 0 0 0 0 1 1 1 1 0 0 0 0 22
1845 1627 1347 1179 1311 1167 848 780 592 305 353 298 67 36 10 0 0 0 0 0 0 0 1 0 1 2 1 0 0 0 0 25
2040 1707 1448 1290 1179 909 476 650 474 260 363 386 191 87 17 0 0 0 0 0 0 1 0 1 3 0 6 10 2 0 0 6
1684 1654 1415 1363 961 967 699 881 582 387 324 315 268 137 0 21 0 0 0 0 0 0 2 5 1 0 1 7 3 0 1 2
498 1525 1343 1458 1244 1126 1096 1071 466 549 325 181 288 246 60 43 0 0 0 0 0 0 0 0 2 2 0 2 1 2 0 1
111 1136 1213 1382 1353 1056 405 138 57 18 253 379 214 182 182 102 22 14 0 0 1 1 0 2 0 1 0 0 0 0 0 1
0 238 1257 1212 1164 1126 814 1003 834 606 482 503 490 140 56 155 115 19 10 0 5 1 0 2 7 7 2 1 0 0 0 1
0 0 0 0 473 1123 884 949 845 192 176 60 149 108 60 41 38 27 40 35 36 20 4 9 5 12 7 4 0 0 0 0
0 0 0 0 0 0 786 780 575 218 123 32 43 41 81 51 28 17 5 0 0 0 6 11 14 9 9 7 1 0 0 0
0 0 0 0 0 0 0 599 370 344 244 247 67 44 12 11 22 3 0 0 2 2 1 5 9 11 4 8 12 0 0 0
0 0 0 0 0 0 0 0 558 177 98 125 75 63 47 0 0 7 1 0 0 0 0 2 3 6 11 10 1 0 0 0

GFSFLT2_con_sbcape_114.txt.gz
CAPE
1151 1269 1357 1465 1601 1615 1472 1378 1387 1427 1513 1729 1871 1616 1205 1195 1179 1231 1251 1287 1300 1181 994 849 849 632 463 314 309 202 217 295
868 925 1114 1151 1345 1424 1356 1373 1334 1369 1359 1470 1460 1253 1057 981 903 1028 1031 968 992 909 704 656 649 399 261 228 178 156 135 174
598 657 809 782 813 1241 1345 1365 1289 1256 1280 1208 961 911 841 770 536 753 690 615 470 350 362 440 347 213 110 123 121 98 84 95
465 664 642 550 736 966 1106 1353 1348 1149 1071 891 664 700 510 267 76 362 419 360 52 35 15 75 40 11 3 89 32 10 51 61
443 515 497 607 740 633 738 924 855 857 780 691 448 562 540 163 23 88 27 121 2 8 1 0 0 1 0 0 0 6 61 68
369 399 381 461 498 458 522 677 384 522 570 515 501 470 457 395 130 4 0 0 0 0 0 0 0 0 0 0 0 0 9 102
356 318 387 423 316 307 207 440 273 224 257 443 487 463 399 432 364 43 9 0 0 0 0 0 0 0 0 0 0 0 12 49
382 343 312 382 354 233 191 148 20 34 299 465 302 353 350 322 293 235 79 0 1 0 0 0 0 0 0 0 0 0 0 5
552 411 330 436 330 194 179 132 16 39 204 228 191 145 189 213 168 81 25 0 0 0 0 0 0 0 0 0 0 0 0 8
1171 768 527 518 548 262 233 158 100 51 103 241 122 80 18 61 80 34 0 0 0 0 0 0 0 2 0 0 0 0 0 13
1561 1291 881 739 793 490 362 295 232 80 124 254 166 36 0 21 75 18 0 1 1 0 0 0 0 0 1 0 0 0 1 14
1663 1690 1400 1035 1106 921 682 529 423 261 229 219 110 88 0 0 0 0 0 0 1 1 0 0 0 0 5 4 2 0 2 1
1754 1749 1558 1354 1408 1137 774 800 527 422 369 322 145 94 0 0 0 0 0 0 0 0 1 1 2 0 2 1 2 1 1 6
211 1667 1443 1541 1523 1294 1043 1070 858 740 542 353 273 103 19 29 15 0 0 1 1 1 1 1 0 1 0 2 1 1 1 4
0 868 1389 1481 1458 1193 335 377 264 575 539 423 341 164 45 54 26 18 0 0 2 6 5 0 1 1 0 2 6 5 1 1
0 6 542 1299 1468 1362 1124 1182 1028 1006 996 748 469 151 222 99 29 22 7 0 18 24 11 1 5 3 5 4 0 0 5 0
0 0 0 0 0 1511 1293 1185 945 405 455 641 634 350 248 206 153 55 31 8 46 32 16 3 6 14 20 13 7 0 0 0
0 0 0 0 0 0 606 1307 977 429 412 534 489 371 172 181 158 101 62 58 47 34 18 2 5 11 16 19 20 3 0 0
0 0 0 0 0 0 0 0 946 640 475 509 458 397 207 151 108 76 79 80 54 31 0 5 19 9 18 27 20 19 3 0
0 0 0 0 0 0 0 0 0 519 374 398 211 271 218 179 132 86 31 25 23 16 17 8 1 7 18 14 20 14 8 0

GFSFLT2_con_sbcape_117.txt.gz
CAPE
1792 1909 1803 1453 1579 1654 1494 1357 1401 1572 1721 1848 1937 1851 1560 1359 1386 1556 1664 1665 1512 1288 1125 1014 955 795 576 441 389 409 1205 1029
1504 1547 1828 2016 1905 1393 1352 1313 1277 1424 1592 1696 1621 1404 1213 1126 1101 1274 1321 1359 1204 1075 892 876 724 516 362 322 268 252 1149 1000
1211 1241 1351 1773 1477 1633 1316 1281 1218 1242 1435 1450 1392 1921 1654 1298 985 950 938 922 877 752 648 638 384 294 262 219 83 1127 944 1017
785 975 1135 1239 1138 1313 1646 1710 1843 1796 1776 1896 2227 1980 1850 1376 841 700 577 501 429 383 301 198 406 1146 876 227 584 601 767 334
481 651 942 1047 1161 1191 1230 1443 1629 1675 1924 1945 1815 1605 1511 1273 1128 953 991 333 599 310 368 873 968 1123 1043 1042 974 475 751 503
587 565 679 1002 1073 1037 959 1154 1228 1397 1630 1849 1512 971 1076 1305 1023 1016 887 692 607 394 114 153 503 734 812 910 867 464 874 529
711 490 465 700 884 838 807 863 901 959 1359 1344 1527 973 936 1155 1009 824 632 569 575 473 171 54 146 429 653 622 515 720 735 784
836 573 423 675 748 704 747 745 671 787 952 1219 1407 1024 836 889 864 738 798 619 124 374 243 131 129 253 401 467 462 526 619 672
1189 1023 922 786 677 704 460 509 784 1334 1090 1110 1144 1058 683 751 814 745 830 456 41 313 253 160 46 32 156 202 216 304 457 398
1474 1041 983 1072 916 730 457 667 1033 1257 1168 715 748 930 851 643 571 670 824 133 24 277 27 65 132 47 78 82 106 160 227 395
1808 1443 1251 1312 1208 1073 876 774 999 1105 1109 598 515 865 977 712 552 429 287 177 31 51 3 64 18 87 15 26 80 141 139 151
2043 1671 1556 1429 1361 1060 926 795 874 971 1031 1019 610 697 832 748 552 400 221 107 4 43 7 34 151 258 2 6 17 21 125 62
1890 1947 1598 1344 1400 1092 755 647 605 601 963 985 720 590 646 890 410 211 61 60 22 5 15 44 45 138 16 7 14 18 13 10
1827 2101 1985 1485 1526 1367 1384 1188 996 803 749 735 835 918 537 691 521 141 23 58 46 7 10 6 19 49 5 6 9 13 11 21
0 1405 2259 2004 1790 1593 1418 1350 1344 1130 943 835 645 1029 751 700 532 359 137 90 92 33 7 73 13 7 3 16 19 19 11 8
0 2 1755 1975 1542 1793 1529 1552 1334 1441 1394 1090 704 774 753 782 582 444 293 155 170 49 30 79 126 46 9 20 18 5 27 11
0 0 0 0 709 1707 1494 1716 1868 1631 1492 1163 1050 752 675 781 609 379 437 243 260 232 149 87 264 291 47 18 71 35 34 2
0 0 0 0 0 0 1003 1809 1776 1311 1546 1280 1181 1021 624 820 732 642 592 526 537 466 319 178 312 194 60 9 31 29 10 8
0 0 0 0 0 0 0 0 230 1331 1414 1465 1093 913 768 756 600 513 526 531 366 600 454 356 180 110 81 26 11 19 58 43
0 0 0 0 0 1 0 0 0 0 902 1278 1386 917 869 650 437 533 403 288 190 273 316 202 191 223 137 60 74 276 88 32

GFSFLT2_con_sbcape_120.txt.gz
CAPE
2609 2413 2066 1566 1683 1629 1439 1417 1573 1780 1939 2094 2139 2006 1691 1597 1679 1828 1911 1853 1783 1506 1266 1109 1113 969 735 525 498 688 1311 1237
2697 2629 2460 2396 2280 1449 1293 1313 1459 1661 1774 1917 1893 1704 1486 1400 1441 1616 1705 1664 1466 1311 1086 1018 968 666 474 413 205 373 1245 1084
2525 2498 2204 2478 2410 2116 1261 1189 1319 1496 1649 1658 1698 2027 2056 1706 1373 1387 1455 1328 1123 1042 932 847 574 391 278 57 87 1233 1182 1105
2072 2076 1831 2186 1924 2264 2296 2044 1890 1956 1988 2230 2141 1995 1963 1622 1212 1056 1064 938 802 773 697 434 652 1291 1173 286 1169 1236 1226 1074
1576 1428 1497 1603 2082 1885 2085 1996 1931 2131 2229 2233 2312 2330 2171 1867 1793 1396 1486 752 1249 905 1072 1276 1069 1072 1093 1126 1164 1202 1267 1256
1462 1498 1398 1404 1890 1939 1914 1771 2028 2175 2198 2247 2595 2523 2216 1800 1722 1388 1489 1186 1129 1148 1098 1108 1171 1104 1025 1008 1047 1099 937 1106
1200 1467 1378 1197 2032 1784 1723 1745 1885 1932 2078 2569 2349 1863 2056 1947 1779 1481 1411 1137 1254 1172 995 826 843 915 943 851 955 1049 883 984
993 1505 1464 1291 1716 1853 1716 1602 1662 1715 1750 2165 2525 1902 1948 1964 1707 1584 1344 1250 1231 1237 1124 768 675 646 835 867 770 767 786 808
114 1581 1574 1341 1398 1765 1729 1460 1477 1528 1710 2032 2172 1916 1616 1947 1840 1746 1356 1337 1360 1381 1036 912 819 672 675 828 809 826 816 755
0 1103 1642 1484 1498 1611 1452 1384 1274 2043 2081 1820 1942 1907 1676 1610 1401 1286 1620 1334 1128 1310 1084 966 933 720 613 600 567 565 598 646
0 141 1808 1654 1641 1540 1591 1477 1497 1638 1779 1637 1630 1843 1544 1464 1293 1313 1810 1353 881 1149 1054 1097 882 771 656 581 499 454 386 270
0 0 1975 1873 2009 1706 1458 1472 1421 1468 1705 1796 1313 1570 1461 1485 1360 1374 1258 1258 864 774 669 1080 952 907 455 417 468 358 394 433
0 0 1046 2264 1792 1524 1403 1505 1408 1428 1546 1618 1738 1376 1499 1603 1305 1188 1075 955 692 599 755 801 967 919 596 426 294 188 76 124
0 0 127 2119 2095 1777 1435 1544 1294 1253 1356 1564 1777 1327 1471 1421 1342 1166 857 915 778 678 424 614 776 777 590 304 351 351 96 220
0 181 304 1862 1964 2149 1698 1602 1425 1290 1366 1580 1821 1668 1264 1373 1435 1012 834 776 823 606 423 571 556 422 509 635 437 111 27 158
4 15 791 2055 1972 2078 1666 1857 1694 1825 1622 1456 1363 1468 1634 1154 1222 1143 942 717 749 686 529 475 719 214 312 617 572 187 91 74
2 2 0 0 1989 2032 1673 2142 2156 2221 2050 1753 1483 1414 1747 1544 1391 1043 937 1045 946 903 446 468 580 682 489 328 478 484 304 184
0 2 0 1 2 445 1745 1416 2230 2491 2092 2138 1675 1518 1315 1335 1768 1452 1264 984 841 916 610 597 597 656 573 571 545 382 371 225
1 1 1 3 10 3 2 1 499 2511 2298 2185 1692 1566 1138 1163 1507 1499 1334 1234 958 946 772 810 994 1056 1118 1196 844 595 167 50
5 2 1 1 6 4 4 4 1 1 7 373 2057 1676 1511 1430 1330 1386 1299 1187 1162 1620 1477 1429 1337 1464 886 837 624 382 216 126